M I D A S
Marine Information and Data Acquisition System
Tripno 1670 of the Zeeleeuw from 2009-03-31 07:21:19 to 2009-04-01 14:27:32
Back to CruiseResearch ActivitiesStationsMapUnderway DataData graphs

EquipmentUnitsComment
TimeDGPSUTC
LatitudeDGPSDM.mWGS84
LongitudeDGPSDM.mWGS84
TemperatureSBE03/SBE38deg celciusITS90
ConductivitySBE21S/mITS90
SalinitySBE21 Practical Salinity Units
ChlorophylAChelsea fluorimeterg/lCalibrated in Aceton
Missing or incorrect values are displayed as -999
Sea surface data collected by the RV Zeeleeuw from 2009-03-31 07:09:06 to 2009-04-01 14:30:45
                                                                                    Next 1000 lines
Time Latitude Longitude Temperature Conductivity Salinity ChlorophylA
2009-03-31 07:09:16 51°13.662 2°55.958 -999 0.089237 0.460901 -1.279161
2009-03-31 07:09:21 51°13.662 2°55.956 -999 0.089237 0.460909 -1.313985
2009-03-31 07:09:26 51°13.663 2°55.953 -999 0.089237 0.460916 -1.313985
2009-03-31 07:09:31 51°13.664 2°55.95 -999 0.089237 0.460931 -1.313985
2009-03-31 07:09:36 51°13.665 2°55.946 -999 0.089237 0.460931 -1.313985
2009-03-31 07:09:42 51°13.667 2°55.942 -999 0.089237 0.460939 -1.313985
2009-03-31 07:09:48 51°13.668 2°55.937 -999 0.089237 0.460954 -1.313985
2009-03-31 07:09:53 51°13.67 2°55.933 -999 0.089237 0.460961 -1.313985
2009-03-31 07:09:59 51°13.671 2°55.928 -999 0.089237 0.460961 -1.313985
2009-03-31 07:10:05 51°13.673 2°55.923 -999 0.089237 0.460969 -1.313985
2009-03-31 07:10:10 51°13.674 2°55.918 -999 0.089237 0.460969 -1.313985
2009-03-31 07:10:15 51°13.676 2°55.913 -999 0.089237 0.460969 -1.279161
2009-03-31 07:10:20 51°13.677 2°55.908 -999 0.089237 0.460976 -1.279161
2009-03-31 07:10:24 51°13.679 2°55.904 -999 0.089237 0.460976 -1.279161
2009-03-31 07:10:30 51°13.681 2°55.897 -999 0.089237 0.460976 -1.279161
2009-03-31 07:10:35 51°13.682 2°55.892 -999 0.089237 0.460984 -1.313985
2009-03-31 07:10:40 51°13.683 2°55.886 -999 0.089237 0.460984 -1.313985
2009-03-31 07:10:44 51°13.684 2°55.881 -999 0.089237 0.460984 -1.313985
2009-03-31 07:10:50 51°13.686 2°55.874 -999 0.089237 0.460999 -1.313985
2009-03-31 07:10:55 51°13.687 2°55.868 -999 0.089237 0.460999 -1.313985
2009-03-31 07:11:00 51°13.688 2°55.862 -999 0.089237 0.460999 -1.313985
2009-03-31 07:11:04 51°13.689 2°55.857 -999 0.089237 0.461006 -1.313985
2009-03-31 07:11:10 51°13.691 2°55.849 -999 0.089237 0.461006 -1.313985
2009-03-31 07:11:15 51°13.691 2°55.843 -999 0.089237 0.461006 -1.279161
2009-03-31 07:11:20 51°13.692 2°55.836 -999 0.089237 0.461006 -1.313985
2009-03-31 07:11:24 51°13.693 2°55.831 -999 0.089237 0.461014 -1.313985
2009-03-31 07:11:30 51°13.694 2°55.823 -999 0.089237 0.461021 -1.313985
2009-03-31 07:11:35 51°13.695 2°55.816 -999 0.089237 0.461029 -1.313985
2009-03-31 07:11:40 51°13.695 2°55.81 -999 0.089237 0.461029 -1.313985
2009-03-31 07:11:45 51°13.696 2°55.803 -999 0.089237 0.461029 -1.313985
2009-03-31 07:11:50 51°13.696 2°55.797 -999 0.089237 0.461036 -1.313985
2009-03-31 07:11:55 51°13.697 2°55.791 -999 0.089237 0.461036 -1.313985
2009-03-31 07:12:00 51°13.697 2°55.785 -999 0.089237 0.461044 -1.313985
2009-03-31 07:12:05 51°13.697 2°55.78 -999 0.089237 0.461044 -1.313985
2009-03-31 07:12:10 51°13.698 2°55.774 -999 0.089237 0.461044 -1.313985
2009-03-31 07:12:14 51°13.698 2°55.77 -999 0.089237 0.461052 -1.313985
2009-03-31 07:12:20 51°13.698 2°55.765 -999 0.089237 0.461059 -1.313985
2009-03-31 07:12:24 51°13.698 2°55.762 -999 0.089237 0.461052 -1.279161
2009-03-31 07:12:29 51°13.699 2°55.759 -999 0.089237 0.461059 -1.313985
2009-03-31 07:12:34 51°13.699 2°55.758 -999 0.089237 0.461067 -1.313985
2009-03-31 07:12:39 51°13.7 2°55.757 -999 0.089237 0.461067 -1.313985
2009-03-31 07:12:44 51°13.7 2°55.756 -999 0.089237 0.461067 -1.313985
2009-03-31 07:12:49 51°13.701 2°55.755 -999 0.089237 0.461067 -1.279161
2009-03-31 07:12:53 51°13.702 2°55.755 -999 0.089237 0.461059 -1.313985
2009-03-31 07:12:58 51°13.702 2°55.755 -999 0.089237 0.461074 -1.313985
2009-03-31 07:13:03 51°13.703 2°55.755 -999 0.089237 0.461089 -1.313985
2009-03-31 07:13:08 51°13.704 2°55.755 -999 0.089237 0.461089 -1.313985
2009-03-31 07:13:13 51°13.705 2°55.755 -999 0.089237 0.461104 -1.279161
2009-03-31 07:13:18 51°13.707 2°55.756 -999 0.089237 0.461119 -1.313985
2009-03-31 07:13:23 51°13.708 2°55.756 -999 0.089237 0.461134 -1.313985
2009-03-31 07:13:28 51°13.71 2°55.756 -999 0.089237 0.461142 -1.279161
2009-03-31 07:13:33 51°13.711 2°55.756 -999 0.089237 0.461142 -1.313985
2009-03-31 07:13:38 51°13.711 2°55.756 -999 0.089237 0.461142 -1.313985
2009-03-31 07:13:42 51°13.712 2°55.755 -999 0.089237 0.461134 -1.313985
2009-03-31 07:13:47 51°13.712 2°55.755 -999 0.089237 0.461119 -1.313985
2009-03-31 07:13:52 51°13.711 2°55.754 -999 0.089237 0.461104 -1.313985
2009-03-31 07:13:57 51°13.711 2°55.753 -999 0.089237 0.461097 -1.279161
2009-03-31 07:14:02 51°13.711 2°55.752 -999 0.089237 0.461097 -1.279161
2009-03-31 07:14:07 51°13.711 2°55.751 -999 0.089237 0.461097 -1.279161
2009-03-31 07:14:12 51°13.71 2°55.75 -999 0.089237 0.461104 -1.313985
2009-03-31 07:14:16 51°13.71 2°55.749 -999 0.089237 0.461119 -1.313985
2009-03-31 07:14:21 51°13.71 2°55.748 -999 0.089237 0.461134 -1.313985
2009-03-31 07:14:26 51°13.711 2°55.747 -999 0.089237 0.461149 -1.313985
2009-03-31 07:14:31 51°13.713 2°55.746 -999 0.089237 0.461157 -1.279161
2009-03-31 07:14:36 51°13.716 2°55.744 -999 0.089237 0.461157 -1.279161
2009-03-31 07:14:41 51°13.719 2°55.742 -999 0.089237 0.461172 -1.313985
2009-03-31 07:14:46 51°13.723 2°55.738 -999 0.089237 0.46118 -1.279161
2009-03-31 07:14:51 51°13.727 2°55.734 -999 0.089237 0.461164 -1.279161
2009-03-31 07:14:56 51°13.732 2°55.728 -999 0.089237 0.461127 -1.313985
2009-03-31 07:15:01 51°13.737 2°55.723 -999 0.089237 0.461097 -1.313985
2009-03-31 07:15:06 51°13.742 2°55.716 -999 0.089237 0.461097 -1.313985
2009-03-31 07:15:11 51°13.748 2°55.71 -999 0.089237 0.461104 -1.279161
2009-03-31 07:15:16 51°13.754 2°55.704 -999 0.089237 0.461127 -1.313985
2009-03-31 07:15:21 51°13.76 2°55.697 -999 0.089237 0.461157 -1.313985
2009-03-31 07:15:26 51°13.767 2°55.691 -999 0.089237 0.461195 -1.313985
2009-03-31 07:15:31 51°13.773 2°55.685 -999 0.089237 0.46121 -1.313985
2009-03-31 07:15:36 51°13.779 2°55.679 -999 0.089237 0.46121 -1.313985
2009-03-31 07:15:41 51°13.786 2°55.673 -999 0.089237 0.46121 -1.313985
2009-03-31 07:15:46 51°13.792 2°55.667 -999 0.089237 0.461195 -1.279161
2009-03-31 07:15:51 51°13.798 2°55.662 -999 0.089237 0.461172 -1.313985
2009-03-31 07:15:56 51°13.805 2°55.657 -999 0.089237 0.461149 -1.313985
2009-03-31 07:16:01 51°13.811 2°55.652 -999 0.089237 0.461134 -1.313985
2009-03-31 07:16:06 51°13.817 2°55.648 -999 0.089237 0.461134 -1.313985
2009-03-31 07:16:11 51°13.823 2°55.643 -999 0.089237 0.461142 -1.279161
2009-03-31 07:16:16 51°13.829 2°55.638 -999 0.089237 0.461164 -1.313985
2009-03-31 07:16:21 51°13.836 2°55.634 -999 0.089237 0.461195 -1.279161
2009-03-31 07:16:26 51°13.842 2°55.63 -999 0.089237 0.461232 -1.313985
2009-03-31 07:16:31 51°13.848 2°55.626 -999 0.089237 0.461255 -1.313985
2009-03-31 07:16:36 51°13.854 2°55.621 -999 0.089237 0.461255 -1.313985
2009-03-31 07:16:41 51°13.86 2°55.617 -999 0.089237 0.461277 -1.313985
2009-03-31 07:16:46 51°13.866 2°55.613 -999 0.089237 0.46127 -1.313985
2009-03-31 07:16:51 51°13.873 2°55.609 -999 0.089237 0.461262 -1.313985
2009-03-31 07:16:56 51°13.879 2°55.604 -999 0.089237 0.461262 -1.313985
2009-03-31 07:17:01 51°13.886 2°55.599 -999 0.089237 0.461255 -1.313985
2009-03-31 07:17:06 51°13.893 2°55.594 -999 0.089237 0.461255 -1.313985
2009-03-31 07:17:11 51°13.9 2°55.589 -999 0.089237 0.461255 -1.313985
2009-03-31 07:17:16 51°13.907 2°55.584 -999 0.089237 0.461255 -1.313985
2009-03-31 07:17:21 51°13.915 2°55.578 -999 0.089237 0.46127 -1.313985
2009-03-31 07:17:26 51°13.923 2°55.573 -999 0.089237 0.461277 -1.279161
2009-03-31 07:17:31 51°13.932 2°55.567 -999 0.089237 0.461285 -1.313985
2009-03-31 07:17:36 51°13.941 2°55.56 -999 0.089237 0.461285 -1.313985
2009-03-31 07:17:41 51°13.95 2°55.554 -999 0.089237 0.461293 -1.313985
2009-03-31 07:17:46 51°13.96 2°55.547 -999 0.089237 0.461293 -1.313985
2009-03-31 07:17:51 51°13.969 2°55.54 -999 0.089237 0.461293 -1.313985
2009-03-31 07:17:56 51°13.98 2°55.533 -999 0.089237 0.461285 -1.313985
2009-03-31 07:18:01 51°13.99 2°55.526 -999 0.089237 0.461293 -1.313985
2009-03-31 07:18:06 51°14.001 2°55.518 -999 0.089237 0.461293 -1.313985
2009-03-31 07:18:11 51°14.012 2°55.51 -999 0.089237 0.461293 -1.279161
2009-03-31 07:18:16 51°14.023 2°55.502 -999 0.089237 0.461308 -1.279161
2009-03-31 07:18:21 51°14.034 2°55.494 -999 0.089237 0.461315 -1.313985
2009-03-31 07:18:26 51°14.045 2°55.485 -999 0.089237 0.461315 -1.279161
2009-03-31 07:18:31 51°14.056 2°55.477 -999 0.089237 0.461323 -1.313985
2009-03-31 07:18:36 51°14.068 2°55.468 -999 0.089237 0.461323 -1.313985
2009-03-31 07:18:41 51°14.079 2°55.459 -999 0.089237 0.461323 -1.313985
2009-03-31 07:18:46 51°14.091 2°55.45 -999 0.089237 0.461323 -1.279161
2009-03-31 07:18:51 51°14.103 2°55.441 -999 0.089237 0.461323 -1.279161
2009-03-31 07:18:56 51°14.114 2°55.431 -999 0.089237 0.461323 -1.279161
2009-03-31 07:19:01 51°14.125 2°55.421 -999 0.089237 0.461323 -1.279161
2009-03-31 07:19:06 51°14.137 2°55.411 -999 0.089237 0.461323 -1.279161
2009-03-31 07:19:11 51°14.148 2°55.401 -999 0.089237 0.461323 -1.279161
2009-03-31 07:19:16 51°14.159 2°55.39 -999 0.089237 0.46133 -1.313985
2009-03-31 07:19:21 51°14.17 2°55.379 -999 0.089237 0.461338 -1.279161
2009-03-31 07:19:26 51°14.181 2°55.367 -999 0.089237 0.461345 -1.279161
2009-03-31 07:19:31 51°14.192 2°55.355 -999 0.089237 0.46136 -1.279161
2009-03-31 07:19:36 51°14.203 2°55.343 -999 0.089237 0.46136 -1.279161
2009-03-31 07:19:41 51°14.213 2°55.33 -999 0.089237 0.461368 -1.313985
2009-03-31 07:19:46 51°14.224 2°55.317 -999 0.089237 0.461375 -1.279161
2009-03-31 07:19:51 51°14.234 2°55.302 -999 0.089237 0.461383 -1.313985
2009-03-31 07:19:56 51°14.244 2°55.288 -999 0.089134 0.460839 -1.279161
2009-03-31 07:20:01 51°14.254 2°55.273 -999 0.089237 0.461398 -1.313985
2009-03-31 07:20:06 51°14.263 2°55.257 -999 0.089237 0.461398 -1.313985
2009-03-31 07:20:11 51°14.273 2°55.242 -999 0.089237 0.461398 -1.313985
2009-03-31 07:20:16 51°14.283 2°55.226 -999 0.089237 0.461398 -1.279161
2009-03-31 07:20:21 51°14.292 2°55.209 -999 0.089237 0.461398 -1.279161
2009-03-31 07:20:26 51°14.302 2°55.193 -999 0.089134 0.460854 -1.313985
2009-03-31 07:20:31 51°14.312 2°55.177 -999 0.089237 0.461406 -1.279161
2009-03-31 07:20:36 51°14.321 2°55.16 -999 0.089237 0.461406 -1.279161
2009-03-31 07:20:41 51°14.331 2°55.143 -999 0.089134 0.460862 -1.313985
2009-03-31 07:20:46 51°14.34 2°55.126 -999 0.089134 0.460862 -1.279161
2009-03-31 07:20:51 51°14.35 2°55.108 -999 0.089237 0.461413 -1.279161
2009-03-31 07:20:56 51°14.359 2°55.09 -999 0.089134 0.460869 -1.279161
2009-03-31 07:21:01 51°14.369 2°55.073 -999 0.089134 0.460877 -1.313985
2009-03-31 07:21:06 51°14.379 2°55.055 -999 0.089134 0.460877 -1.313985
2009-03-31 07:21:11 51°14.388 2°55.037 -999 0.089134 0.460892 -1.279161
2009-03-31 07:21:16 51°14.398 2°55.018 -999 0.089134 0.460899 -1.279161
2009-03-31 07:21:21 51°14.407 2°55 -999 0.089134 0.460899 -1.313985
2009-03-31 07:21:26 51°14.417 2°54.981 -999 0.089134 0.460892 -1.313985
2009-03-31 07:21:31 51°14.426 2°54.961 -999 0.089134 0.460884 -1.313985
2009-03-31 07:21:36 51°14.435 2°54.941 -999 0.089134 0.460884 -1.313985
2009-03-31 07:21:41 51°14.443 2°54.921 -999 0.089134 0.460884 -1.279161
2009-03-31 07:21:46 51°14.452 2°54.9 -999 0.089134 0.460892 -1.279161
2009-03-31 07:21:51 51°14.46 2°54.879 -999 0.089134 0.460899 -1.279161
2009-03-31 07:21:56 51°14.469 2°54.858 -999 0.089134 0.460914 -1.279161
2009-03-31 07:22:01 51°14.478 2°54.837 -999 0.089134 0.46093 -1.313985
2009-03-31 07:22:06 51°14.486 2°54.816 -999 0.089134 0.46093 -1.313985
2009-03-31 07:22:11 51°14.495 2°54.794 -999 0.089134 0.460937 -1.313985
2009-03-31 07:22:16 51°14.503 2°54.772 -999 0.089134 0.460937 -1.279161
2009-03-31 07:22:21 51°14.512 2°54.75 -999 0.089134 0.460952 -1.313985
2009-03-31 07:22:26 51°14.52 2°54.727 -999 0.089134 0.46096 -1.279161
2009-03-31 07:22:31 51°14.528 2°54.704 -999 0.089134 0.460967 -1.313985
2009-03-31 07:22:36 51°14.536 2°54.681 -999 0.089134 0.460967 -1.313985
2009-03-31 07:22:41 51°14.545 2°54.658 -999 0.089134 0.460967 -1.313985
2009-03-31 07:22:46 51°14.553 2°54.634 -999 0.089134 0.460967 -1.279161
2009-03-31 07:22:51 51°14.562 2°54.611 -999 0.089134 0.460967 -1.313985
2009-03-31 07:22:56 51°14.57 2°54.587 -999 0.089134 0.460967 -1.279161
2009-03-31 07:23:01 51°14.579 2°54.563 -999 0.089134 0.460975 -1.313985
2009-03-31 07:23:06 51°14.587 2°54.538 -999 0.089134 0.460975 -1.313985
2009-03-31 07:23:11 51°14.595 2°54.514 -999 0.089134 0.460975 -1.313985
2009-03-31 07:23:16 51°14.604 2°54.489 -999 0.089134 0.460982 -1.279161
2009-03-31 07:23:21 51°14.612 2°54.465 -999 0.089134 0.46099 -1.279161
2009-03-31 07:23:26 51°14.62 2°54.44 -999 0.089134 0.461005 -1.279161
2009-03-31 07:23:31 51°14.629 2°54.416 -999 0.089134 0.461012 -1.313985
2009-03-31 07:23:36 51°14.637 2°54.391 -999 0.089134 0.461012 -1.313985
2009-03-31 07:23:41 51°14.645 2°54.366 -999 0.089134 0.461028 -1.279161
2009-03-31 07:23:46 51°14.652 2°54.341 -999 0.089134 0.46102 -1.313985
2009-03-31 07:23:51 51°14.661 2°54.316 -999 0.089134 0.461028 -1.279161
2009-03-31 07:23:56 51°14.669 2°54.291 -999 0.089134 0.461035 -1.313985
2009-03-31 07:24:01 51°14.677 2°54.267 -999 0.089134 0.461043 -1.279161
2009-03-31 07:24:06 51°14.686 2°54.242 -999 0.089134 0.461043 -1.279161
2009-03-31 07:24:11 51°14.694 2°54.218 -999 0.089134 0.461058 -1.313985
2009-03-31 07:24:16 51°14.703 2°54.193 -999 0.089134 0.461065 -1.279161
2009-03-31 07:24:21 51°14.711 2°54.169 -999 0.089134 0.46108 -1.313985
2009-03-31 07:24:26 51°14.72 2°54.144 -999 0.089134 0.461088 -1.279161
2009-03-31 07:24:31 51°14.728 2°54.12 -999 0.089134 0.461095 -1.279161
2009-03-31 07:24:36 51°14.737 2°54.095 -999 0.089134 0.461095 -1.279161
2009-03-31 07:24:41 51°14.745 2°54.071 -999 0.089134 0.461095 -1.279161
2009-03-31 07:24:46 51°14.754 2°54.046 -999 0.089134 0.461088 -1.313985
2009-03-31 07:24:51 51°14.762 2°54.022 -999 0.089134 0.461095 -1.279161
2009-03-31 07:24:56 51°14.771 2°53.998 -999 0.089134 0.461095 -1.279161
2009-03-31 07:25:01 51°14.779 2°53.973 -999 0.089134 0.461103 -1.313985
2009-03-31 07:25:06 51°14.788 2°53.949 -999 0.089134 0.461103 -1.313985
2009-03-31 07:25:11 51°14.796 2°53.925 -999 0.089134 0.461103 -1.313985
2009-03-31 07:25:16 51°14.805 2°53.9 -999 0.089134 0.46111 -1.313985
2009-03-31 07:25:21 51°14.813 2°53.876 -999 0.089134 0.461141 -1.313985
2009-03-31 07:25:26 51°14.82 2°53.85 -999 0.089134 0.461141 -1.313985
2009-03-31 07:25:31 51°14.827 2°53.825 -999 0.089134 0.461163 -1.279161
2009-03-31 07:25:36 51°14.833 2°53.799 -999 0.089134 0.461163 -1.279161
2009-03-31 07:25:41 51°14.84 2°53.773 -999 0.089134 0.461156 -1.279161
2009-03-31 07:25:46 51°14.845 2°53.746 -999 0.089134 0.461163 -1.279161
2009-03-31 07:25:51 51°14.85 2°53.719 -999 0.089134 0.461171 -1.279161
2009-03-31 07:25:56 51°14.855 2°53.692 -999 0.089134 0.461171 -1.313985
2009-03-31 07:26:01 51°14.859 2°53.665 -999 0.089134 0.461193 -1.279161
2009-03-31 07:26:06 51°14.864 2°53.637 -999 0.089134 0.461193 -1.279161
2009-03-31 07:26:11 51°14.868 2°53.61 -999 0.089134 0.461224 -1.279161
2009-03-31 07:26:16 51°14.87 2°53.582 -999 0.089134 0.461239 -1.313985
2009-03-31 07:26:20 51°14.872 2°53.56 -999 0.089134 0.461254 -1.313985
2009-03-31 07:26:25 51°14.874 2°53.532 -999 0.089134 0.461246 -1.279161
2009-03-31 07:26:31 51°14.876 2°53.498 -999 0.089134 0.461239 -1.279161
2009-03-31 07:26:36 51°14.877 2°53.47 -999 0.089134 0.461239 -1.279161
2009-03-31 07:26:41 51°14.878 2°53.442 -999 0.089134 0.461231 -1.313985
2009-03-31 07:26:46 51°14.879 2°53.414 -999 0.089134 0.461224 -1.279161
2009-03-31 07:26:51 51°14.88 2°53.385 -999 0.089134 0.461216 -1.313985
2009-03-31 07:26:56 51°14.881 2°53.357 -999 0.089134 0.461224 -1.279161
2009-03-31 07:27:01 51°14.881 2°53.329 -999 0.089134 0.461231 -1.313985
2009-03-31 07:27:06 51°14.881 2°53.3 -999 0.089134 0.461231 -1.313985
2009-03-31 07:27:11 51°14.882 2°53.272 -999 0.089134 0.461254 -1.279161
2009-03-31 07:27:16 51°14.882 2°53.244 -999 0.089134 0.461269 -1.279161
2009-03-31 07:27:21 51°14.883 2°53.215 -999 0.089134 0.461292 -1.279161
2009-03-31 07:27:26 51°14.883 2°53.187 -999 0.089134 0.461307 -1.279161
2009-03-31 07:27:31 51°14.884 2°53.159 -999 0.089134 0.461322 -1.279161
2009-03-31 07:27:36 51°14.884 2°53.13 -999 0.089134 0.461322 -1.279161
2009-03-31 07:27:41 51°14.885 2°53.102 -999 0.089134 0.461337 -1.279161
2009-03-31 07:27:46 51°14.885 2°53.074 -999 0.089134 0.461337 -1.279161
2009-03-31 07:27:51 51°14.886 2°53.046 -999 0.089134 0.461344 -1.313985
2009-03-31 07:27:56 51°14.886 2°53.017 -999 0.089134 0.461344 -1.313985
2009-03-31 07:28:01 51°14.887 2°52.989 -999 0.089134 0.461352 -1.313985
2009-03-31 07:28:06 51°14.888 2°52.96 -999 0.089134 0.461352 -1.313985
2009-03-31 07:28:11 51°14.888 2°52.932 -999 0.089134 0.461359 -1.313985
2009-03-31 07:28:16 51°14.889 2°52.903 -999 0.089134 0.461367 -1.279161
2009-03-31 07:28:21 51°14.89 2°52.875 -999 0.089134 0.461382 -1.279161
2009-03-31 07:28:26 51°14.89 2°52.846 -999 0.089134 0.461397 -1.313985
2009-03-31 07:28:31 51°14.891 2°52.818 -999 0.089134 0.461405 -1.313985
2009-03-31 07:28:36 51°14.891 2°52.789 -999 0.089134 0.461405 -1.313985
2009-03-31 07:28:41 51°14.892 2°52.761 -999 0.089134 0.46142 -1.313985
2009-03-31 07:28:46 51°14.892 2°52.732 -999 0.089134 0.461427 -1.279161
2009-03-31 07:28:51 51°14.893 2°52.704 -999 0.089134 0.461427 -1.313985
2009-03-31 07:28:56 51°14.894 2°52.675 -999 0.089134 0.461435 -1.279161
2009-03-31 07:29:01 51°14.895 2°52.647 -999 0.089134 0.46145 -1.279161
2009-03-31 07:29:06 51°14.895 2°52.618 -999 0.089134 0.46145 -1.279161
2009-03-31 07:29:11 51°14.896 2°52.59 -999 0.089134 0.461458 -1.279161
2009-03-31 07:29:16 51°14.897 2°52.561 -999 0.089134 0.461465 -1.279161
2009-03-31 07:29:21 51°14.898 2°52.533 -999 0.089134 0.46148 -1.313985
2009-03-31 07:29:26 51°14.898 2°52.504 -999 0.089134 0.461488 -1.313985
2009-03-31 07:29:31 51°14.899 2°52.476 -999 0.089134 0.461495 -1.313985
2009-03-31 07:29:36 51°14.9 2°52.447 -999 0.089134 0.461495 -1.313985
2009-03-31 07:29:41 51°14.901 2°52.419 -999 0.089134 0.461511 -1.279161
2009-03-31 07:29:45 51°14.902 2°52.396 -999 0.089031 0.460966 -1.279161
2009-03-31 07:29:51 51°14.903 2°52.361 -999 0.089031 0.460973 -1.313985
2009-03-31 07:29:56 51°14.904 2°52.333 -999 0.089031 0.460989 -1.313985
2009-03-31 07:30:01 51°14.904 2°52.304 -999 0.089031 0.460996 -1.313985
2009-03-31 07:30:06 51°14.905 2°52.275 -999 0.089031 0.460996 -1.313985
2009-03-31 07:30:11 51°14.906 2°52.247 -999 0.089031 0.461004 -1.279161
2009-03-31 07:30:16 51°14.907 2°52.218 -999 0.089031 0.461011 -1.279161
2009-03-31 07:30:21 51°14.907 2°52.189 -999 0.089031 0.461026 -1.313985
2009-03-31 07:30:26 51°14.908 2°52.16 -999 0.089031 0.461041 -1.313985
2009-03-31 07:30:31 51°14.908 2°52.131 -999 0.089031 0.461041 -1.279161
2009-03-31 07:30:36 51°14.909 2°52.103 -999 0.089031 0.461041 -1.279161
2009-03-31 07:30:41 51°14.909 2°52.074 -999 0.089031 0.461064 -1.313985
2009-03-31 07:30:46 51°14.909 2°52.046 -999 0.089031 0.461072 -1.313985
2009-03-31 07:30:51 51°14.909 2°52.017 -999 0.089031 0.461079 -1.313985
2009-03-31 07:30:56 51°14.909 2°51.988 -999 0.089031 0.461079 -1.313985
2009-03-31 07:31:01 51°14.91 2°51.959 -999 0.089031 0.461087 -1.313985
2009-03-31 07:31:06 51°14.91 2°51.931 -999 0.089031 0.461087 -1.313985
2009-03-31 07:31:11 51°14.911 2°51.902 -999 0.089031 0.461094 -1.279161
2009-03-31 07:31:16 51°14.912 2°51.873 -999 0.089031 0.461109 -1.313985
2009-03-31 07:31:21 51°14.913 2°51.845 -999 0.089031 0.461125 -1.313985
2009-03-31 07:31:25 51°14.913 2°51.822 -999 0.089031 0.461125 -1.313985
2009-03-31 07:31:31 51°14.914 2°51.787 -999 0.089031 0.46114 -1.313985
2009-03-31 07:31:36 51°14.915 2°51.758 -999 0.089031 0.46114 -1.313985
2009-03-31 07:31:41 51°14.916 2°51.73 -999 0.089031 0.461155 -1.313985
2009-03-31 07:31:46 51°14.916 2°51.701 -999 0.089031 0.461162 -1.313985
2009-03-31 07:31:51 51°14.917 2°51.672 -999 0.089031 0.46117 -1.279161
2009-03-31 07:31:56 51°14.917 2°51.644 -999 0.089031 0.461177 -1.279161
2009-03-31 07:32:01 51°14.918 2°51.615 -999 0.089031 0.461193 -1.313985
2009-03-31 07:32:06 51°14.919 2°51.587 -999 0.089031 0.461193 -1.313985
2009-03-31 07:32:11 51°14.919 2°51.558 -999 0.089031 0.4612 -1.313985
2009-03-31 07:32:16 51°14.92 2°51.53 -999 0.089031 0.461208 -1.279161
2009-03-31 07:32:21 51°14.921 2°51.501 -999 0.089031 0.461215 -1.313985
2009-03-31 07:32:26 51°14.921 2°51.472 -999 0.089031 0.461223 -1.313985
2009-03-31 07:32:31 51°14.922 2°51.444 -999 0.089031 0.461238 -1.279161
2009-03-31 07:32:36 51°14.923 2°51.415 -999 0.089031 0.461238 -1.279161
2009-03-31 07:32:41 51°14.924 2°51.387 -999 0.089031 0.461245 -1.279161
2009-03-31 07:32:46 51°14.924 2°51.358 -999 0.089031 0.461261 -1.313985
2009-03-31 07:32:51 51°14.925 2°51.33 -999 0.089031 0.461268 -1.279161
2009-03-31 07:32:56 51°14.926 2°51.301 -999 0.089031 0.461283 -1.279161
2009-03-31 07:33:01 51°14.926 2°51.273 -999 0.089031 0.461291 -1.313985
2009-03-31 07:33:06 51°14.927 2°51.244 -999 0.089031 0.461291 -1.313985
2009-03-31 07:33:11 51°14.927 2°51.216 -999 0.089031 0.461298 -1.313985
2009-03-31 07:33:16 51°14.928 2°51.187 -999 0.089031 0.461306 -1.279161
2009-03-31 07:33:21 51°14.929 2°51.158 -999 0.089031 0.461321 -1.279161
2009-03-31 07:33:26 51°14.929 2°51.13 -999 0.089031 0.461329 -1.279161
2009-03-31 07:33:31 51°14.93 2°51.101 -999 0.089031 0.461336 -1.279161
2009-03-31 07:33:36 51°14.93 2°51.072 -999 0.089031 0.461336 -1.279161
2009-03-31 07:33:41 51°14.931 2°51.044 -999 0.089031 0.461351 -1.279161
2009-03-31 07:33:46 51°14.932 2°51.015 -999 0.089031 0.461351 -1.313985
2009-03-31 07:33:51 51°14.932 2°50.986 -999 0.089031 0.461366 -1.279161
2009-03-31 07:33:56 51°14.933 2°50.958 -999 0.089031 0.461381 -1.313985
2009-03-31 07:34:01 51°14.934 2°50.929 -999 0.089031 0.461381 -1.313985
2009-03-31 07:34:06 51°14.935 2°50.9 -999 0.089031 0.461381 -1.313985
2009-03-31 07:34:11 51°14.935 2°50.871 -999 0.089031 0.461397 -1.279161
2009-03-31 07:34:16 51°14.936 2°50.843 -999 0.089031 0.461412 -1.313985
2009-03-31 07:34:21 51°14.937 2°50.814 -999 0.089031 0.461412 -1.313985
2009-03-31 07:34:26 51°14.937 2°50.785 -999 0.089031 0.461434 -1.279161
2009-03-31 07:34:31 51°14.937 2°50.756 -999 0.089031 0.461442 -1.313985
2009-03-31 07:34:36 51°14.936 2°50.728 -999 0.089031 0.461442 -1.313985
2009-03-31 07:34:41 51°14.935 2°50.699 -999 0.089031 0.461465 -1.279161
2009-03-31 07:34:46 51°14.933 2°50.67 -999 0.089031 0.461465 -1.313985
2009-03-31 07:34:51 51°14.932 2°50.642 -999 0.089031 0.46148 -1.313985
2009-03-31 07:34:56 51°14.93 2°50.613 -999 0.089031 0.461487 -1.279161
2009-03-31 07:35:01 51°14.928 2°50.585 -999 0.089031 0.461495 -1.279161
2009-03-31 07:35:06 51°14.926 2°50.556 -999 0.089031 0.461495 -1.279161
2009-03-31 07:35:11 51°14.924 2°50.528 -999 0.089031 0.461503 -1.279161
2009-03-31 07:35:16 51°14.921 2°50.499 -999 0.089031 0.461503 -1.279161
2009-03-31 07:35:21 51°14.919 2°50.47 -999 0.089031 0.461518 -1.279161
2009-03-31 07:35:26 51°14.916 2°50.442 -999 0.089031 0.461525 -1.279161
2009-03-31 07:35:31 51°14.914 2°50.413 -999 0.089031 0.461533 -1.279161
2009-03-31 07:35:36 51°14.912 2°50.384 -999 0.089031 0.461533 -1.279161
2009-03-31 07:35:41 51°14.91 2°50.355 -999 0.089031 0.461548 -1.279161
2009-03-31 07:35:46 51°14.907 2°50.327 -999 0.089031 0.461556 -1.279161
2009-03-31 07:35:51 51°14.905 2°50.298 -999 0.089031 0.461571 -1.279161
2009-03-31 07:35:56 51°14.903 2°50.269 -999 0.089031 0.461578 -1.279161
2009-03-31 07:36:01 51°14.901 2°50.241 -999 0.089031 0.461601 -1.279161
2009-03-31 07:36:06 51°14.899 2°50.212 -999 0.089031 0.461601 -1.279161
2009-03-31 07:36:11 51°14.897 2°50.183 -999 0.088928 0.461048 -1.279161
2009-03-31 07:36:16 51°14.894 2°50.154 -999 0.088928 0.461063 -1.279161
2009-03-31 07:36:21 51°14.892 2°50.125 -999 0.088928 0.461071 -1.279161
2009-03-31 07:36:26 51°14.89 2°50.097 -999 0.088928 0.461086 -1.279161
2009-03-31 07:36:31 51°14.888 2°50.068 -999 0.088928 0.461093 -1.279161
2009-03-31 07:36:36 51°14.885 2°50.039 -999 0.088928 0.461093 -1.279161
2009-03-31 07:36:41 51°14.883 2°50.011 -999 0.088928 0.461101 -1.279161
2009-03-31 07:36:46 51°14.88 2°49.982 -999 0.088928 0.461109 -1.279161
2009-03-31 07:36:51 51°14.878 2°49.953 -999 0.088928 0.461124 -1.279161
2009-03-31 07:36:56 51°14.876 2°49.925 -999 0.088928 0.461131 -1.279161
2009-03-31 07:37:01 51°14.874 2°49.896 -999 0.088928 0.461146 -1.279161
2009-03-31 07:37:06 51°14.872 2°49.867 -999 0.088928 0.461146 -1.279161
2009-03-31 07:37:11 51°14.87 2°49.838 -999 0.088928 0.461154 -1.279161
2009-03-31 07:37:16 51°14.868 2°49.81 -999 0.088928 0.461169 -1.279161
2009-03-31 07:37:21 51°14.866 2°49.781 -999 0.088928 0.461177 -1.279161
2009-03-31 07:37:26 51°14.865 2°49.752 -999 0.088928 0.461184 -1.279161
2009-03-31 07:37:31 51°14.862 2°49.724 -999 0.088928 0.461199 -1.279161
2009-03-31 07:37:36 51°14.861 2°49.695 -999 0.088928 0.461199 -1.279161
2009-03-31 07:37:41 51°14.859 2°49.666 -999 0.088928 0.461215 -1.279161
2009-03-31 07:37:46 51°14.857 2°49.637 -999 0.088928 0.461222 -1.279161
2009-03-31 07:37:51 51°14.855 2°49.609 -999 0.088928 0.46123 -1.279161
2009-03-31 07:37:56 51°14.853 2°49.58 -999 0.088928 0.461237 -1.279161
2009-03-31 07:38:01 51°14.851 2°49.551 -999 0.088928 0.461245 -1.279161
2009-03-31 07:38:06 51°14.849 2°49.523 -999 0.088928 0.461245 -1.279161
2009-03-31 07:38:11 51°14.847 2°49.494 -999 0.088928 0.46126 -1.279161
2009-03-31 07:38:16 51°14.845 2°49.465 -999 0.088928 0.461268 -1.279161
2009-03-31 07:38:21 51°14.843 2°49.437 -999 0.088928 0.461275 -1.279161
2009-03-31 07:38:26 51°14.841 2°49.408 -999 0.088928 0.46129 -1.279161
2009-03-31 07:38:31 51°14.839 2°49.379 -999 0.088928 0.461298 -1.279161
2009-03-31 07:38:36 51°14.837 2°49.351 -999 0.088928 0.461298 -1.279161
2009-03-31 07:38:41 51°14.835 2°49.322 -999 0.088928 0.461305 -1.279161
2009-03-31 07:38:46 51°14.833 2°49.293 -999 0.088928 0.461321 -1.279161
2009-03-31 07:38:51 51°14.831 2°49.265 -999 0.088928 0.461321 -1.279161
2009-03-31 07:38:56 51°14.829 2°49.236 -999 0.088928 0.461336 -1.279161
2009-03-31 07:39:01 51°14.827 2°49.207 -999 0.088928 0.461343 -1.279161
2009-03-31 07:39:06 51°14.825 2°49.179 -999 0.088928 0.461343 -1.279161
2009-03-31 07:39:11 51°14.823 2°49.15 -999 0.088928 0.461366 -1.279161
2009-03-31 07:39:16 51°14.82 2°49.122 -999 0.088928 0.461366 -1.279161
2009-03-31 07:39:21 51°14.817 2°49.094 -999 0.088928 0.461381 -1.279161
2009-03-31 07:39:26 51°14.813 2°49.066 -999 0.088928 0.461389 -1.279161
2009-03-31 07:39:31 51°14.81 2°49.038 -999 0.088928 0.461396 -1.279161
2009-03-31 07:39:36 51°14.806 2°49.01 -999 0.088928 0.461396 -1.279161
2009-03-31 07:39:41 51°14.802 2°48.982 -999 0.088928 0.461411 -1.279161
2009-03-31 07:39:46 51°14.798 2°48.954 -999 0.088928 0.461411 -1.279161
2009-03-31 07:39:51 51°14.794 2°48.926 -999 0.088928 0.461419 -1.279161
2009-03-31 07:39:56 51°14.79 2°48.898 -999 0.088928 0.461434 -1.279161
2009-03-31 07:40:01 51°14.786 2°48.87 -999 0.088928 0.461442 -1.279161
2009-03-31 07:40:06 51°14.782 2°48.842 -999 0.088928 0.461442 -1.279161
2009-03-31 07:40:11 51°14.778 2°48.815 -999 0.088928 0.461449 -1.279161
2009-03-31 07:40:16 51°14.774 2°48.787 -999 0.088928 0.461457 -1.279161
2009-03-31 07:40:21 51°14.77 2°48.759 -999 0.088928 0.461464 -1.279161
2009-03-31 07:40:26 51°14.766 2°48.731 -999 0.088928 0.46148 -1.279161
2009-03-31 07:40:31 51°14.762 2°48.703 -999 0.088928 0.46148 -1.279161
2009-03-31 07:40:36 51°14.758 2°48.675 -999 0.088928 0.46148 -1.279161
2009-03-31 07:40:41 51°14.754 2°48.647 -999 0.088928 0.461502 -1.279161
2009-03-31 07:40:46 51°14.75 2°48.619 -999 0.088928 0.461502 -1.279161
2009-03-31 07:40:51 51°14.746 2°48.591 -999 0.088928 0.461518 -1.279161
2009-03-31 07:40:56 51°14.742 2°48.563 -999 0.088928 0.461525 -1.279161
2009-03-31 07:41:01 51°14.738 2°48.536 -999 0.088928 0.461533 -1.279161
2009-03-31 07:41:06 51°14.734 2°48.508 -999 0.088928 0.461533 -1.279161
2009-03-31 07:41:11 51°14.73 2°48.48 -999 0.088928 0.46154 -1.279161
2009-03-31 07:41:16 51°14.726 2°48.452 -999 0.088928 0.461548 -1.279161
2009-03-31 07:41:21 51°14.722 2°48.424 -999 0.088928 0.461563 -1.279161
2009-03-31 07:41:25 51°14.719 2°48.402 -999 0.088928 0.461571 -1.279161
2009-03-31 07:41:31 51°14.714 2°48.368 -999 0.088928 0.461578 -1.279161
2009-03-31 07:41:36 51°14.71 2°48.34 -999 0.088928 0.461578 -1.279161
2009-03-31 07:41:41 51°14.706 2°48.312 -999 0.088928 0.461593 -1.279161
2009-03-31 07:41:46 51°14.702 2°48.285 -999 0.088928 0.461601 -1.279161
2009-03-31 07:41:51 51°14.698 2°48.257 -999 0.088928 0.461609 -1.279161
2009-03-31 07:41:56 51°14.694 2°48.228 -999 0.088928 0.461616 -1.279161
2009-03-31 07:42:01 51°14.691 2°48.201 -999 0.088928 0.461631 -1.279161
2009-03-31 07:42:06 51°14.686 2°48.173 -999 0.088928 0.461631 -1.279161
2009-03-31 07:42:11 51°14.682 2°48.144 -999 0.088928 0.461639 -1.279161
2009-03-31 07:42:16 51°14.679 2°48.117 -999 0.088928 0.461646 -1.279161
2009-03-31 07:42:21 51°14.675 2°48.089 -999 0.088928 0.461654 -1.279161
2009-03-31 07:42:26 51°14.671 2°48.06 -999 0.088826 0.461116 -1.279161
2009-03-31 07:42:31 51°14.667 2°48.032 -999 0.088928 0.461677 -1.279161
2009-03-31 07:42:36 51°14.663 2°48.004 -999 0.088928 0.461677 -1.279161
2009-03-31 07:42:41 51°14.659 2°47.976 -999 0.088826 0.461131 -1.279161
2009-03-31 07:42:46 51°14.655 2°47.948 -999 0.088826 0.461146 -1.279161
2009-03-31 07:42:51 51°14.651 2°47.92 -999 0.088826 0.461153 -1.279161
2009-03-31 07:42:56 51°14.648 2°47.891 -999 0.088826 0.461161 -1.279161
2009-03-31 07:43:01 51°14.644 2°47.863 -999 0.088826 0.461176 -1.279161
2009-03-31 07:43:06 51°14.64 2°47.835 -999 0.088826 0.461176 -1.279161
2009-03-31 07:43:11 51°14.636 2°47.807 -999 0.088826 0.461184 -1.279161
2009-03-31 07:43:16 51°14.632 2°47.779 -999 0.088826 0.461191 -1.279161
2009-03-31 07:43:21 51°14.628 2°47.751 -999 0.088826 0.461207 -1.279161
2009-03-31 07:43:26 51°14.624 2°47.723 -999 0.088826 0.461214 -1.279161
2009-03-31 07:43:31 51°14.621 2°47.695 -999 0.088826 0.461229 -1.279161
2009-03-31 07:43:36 51°14.617 2°47.667 -999 0.088826 0.461229 -1.279161
2009-03-31 07:43:41 51°14.613 2°47.639 -999 0.088826 0.461237 -1.279161
2009-03-31 07:43:46 51°14.609 2°47.61 -999 0.088826 0.461244 -1.279161
2009-03-31 07:43:51 51°14.606 2°47.582 -999 0.088826 0.461252 -1.279161
2009-03-31 07:43:56 51°14.602 2°47.554 -999 0.088826 0.461267 -1.279161
2009-03-31 07:44:01 51°14.598 2°47.526 -999 0.088826 0.461282 -1.279161
2009-03-31 07:44:06 51°14.594 2°47.498 -999 0.088826 0.461282 -1.279161
2009-03-31 07:44:11 51°14.59 2°47.47 -999 0.088826 0.461282 -1.279161
2009-03-31 07:44:16 51°14.586 2°47.442 -999 0.088826 0.46129 -1.279161
2009-03-31 07:44:21 51°14.583 2°47.413 -999 0.088826 0.461305 -1.279161
2009-03-31 07:44:26 51°14.579 2°47.385 -999 0.088826 0.46132 -1.279161
2009-03-31 07:44:31 51°14.575 2°47.357 -999 0.088826 0.461328 -1.279161
2009-03-31 07:44:36 51°14.571 2°47.329 -999 0.088826 0.461328 -1.279161
2009-03-31 07:44:41 51°14.567 2°47.3 -999 0.088826 0.461343 -1.279161
2009-03-31 07:44:46 51°14.564 2°47.272 -999 0.088826 0.461351 -1.279161
2009-03-31 07:44:51 51°14.56 2°47.244 -999 0.088826 0.461358 -1.279161
2009-03-31 07:44:56 51°14.556 2°47.216 -999 0.088826 0.461373 -1.279161
2009-03-31 07:45:01 51°14.552 2°47.187 -999 0.088826 0.461381 -1.279161
2009-03-31 07:45:06 51°14.548 2°47.159 -999 0.088826 0.461381 -1.279161
2009-03-31 07:45:11 51°14.545 2°47.131 -999 0.088826 0.461396 -1.279161
2009-03-31 07:45:16 51°14.541 2°47.102 -999 0.088826 0.461404 -1.279161
2009-03-31 07:45:21 51°14.538 2°47.075 -999 0.088826 0.461419 -1.279161
2009-03-31 07:45:26 51°14.533 2°47.046 -999 0.088826 0.461419 -1.279161
2009-03-31 07:45:31 51°14.53 2°47.018 -999 0.088826 0.461434 -1.279161
2009-03-31 07:45:36 51°14.526 2°46.989 -999 0.088826 0.461434 -1.279161
2009-03-31 07:45:41 51°14.522 2°46.961 -999 0.088826 0.461449 -1.279161
2009-03-31 07:45:46 51°14.518 2°46.933 -999 0.088826 0.461457 -1.279161
2009-03-31 07:45:51 51°14.515 2°46.904 -999 0.088826 0.461472 -1.279161
2009-03-31 07:45:56 51°14.511 2°46.876 -999 0.088826 0.46148 -1.279161
2009-03-31 07:46:01 51°14.507 2°46.848 -999 0.088826 0.461495 -1.279161
2009-03-31 07:46:06 51°14.503 2°46.82 -999 0.088826 0.461495 -1.279161
2009-03-31 07:46:11 51°14.499 2°46.791 -999 0.088826 0.46151 -1.279161
2009-03-31 07:46:16 51°14.495 2°46.764 -999 0.088826 0.46151 -1.279161
2009-03-31 07:46:21 51°14.49 2°46.736 -999 0.088826 0.461533 -1.279161
2009-03-31 07:46:26 51°14.485 2°46.708 -999 0.088826 0.461533 -1.279161
2009-03-31 07:46:31 51°14.481 2°46.68 -999 0.088826 0.46154 -1.279161
2009-03-31 07:46:36 51°14.476 2°46.652 -999 0.088826 0.46154 -1.279161
2009-03-31 07:46:41 51°14.471 2°46.624 -999 0.088826 0.461556 -1.279161
2009-03-31 07:46:46 51°14.466 2°46.596 -999 0.088826 0.461563 -1.279161
2009-03-31 07:46:51 51°14.462 2°46.569 -999 0.088826 0.461578 -1.279161
2009-03-31 07:46:56 51°14.457 2°46.541 -999 0.088826 0.461594 -1.279161
2009-03-31 07:47:01 51°14.452 2°46.513 -999 0.088826 0.461601 -1.279161
2009-03-31 07:47:06 51°14.448 2°46.485 -999 0.088826 0.461601 -1.279161
2009-03-31 07:47:11 51°14.443 2°46.457 -999 0.088826 0.461609 -1.279161
2009-03-31 07:47:16 51°14.438 2°46.43 -999 0.088826 0.461624 -1.279161
2009-03-31 07:47:21 51°14.434 2°46.402 -999 0.088826 0.461632 -1.279161
2009-03-31 07:47:26 51°14.429 2°46.374 -999 0.088826 0.461639 -1.279161
2009-03-31 07:47:31 51°14.424 2°46.346 -999 0.088826 0.461654 -1.279161
2009-03-31 07:47:36 51°14.419 2°46.319 -999 0.088826 0.461654 -1.279161
2009-03-31 07:47:41 51°14.414 2°46.291 -999 0.088826 0.461662 -1.279161
2009-03-31 07:47:46 51°14.409 2°46.263 -999 0.088826 0.461677 -1.279161
2009-03-31 07:47:51 51°14.404 2°46.235 -999 0.088826 0.461685 -1.279161
2009-03-31 07:47:56 51°14.4 2°46.208 -999 0.088826 0.461692 -1.279161
2009-03-31 07:48:01 51°14.395 2°46.18 -999 0.088826 0.461715 -1.279161
2009-03-31 07:48:05 51°14.39 2°46.158 -999 0.088826 0.461715 -1.279161
2009-03-31 07:48:11 51°14.383 2°46.126 -999 0.088826 0.461715 -1.279161
2009-03-31 07:48:16 51°14.377 2°46.099 -999 0.088826 0.461738 -1.279161
2009-03-31 07:48:21 51°14.371 2°46.072 -999 0.088826 0.461738 -1.279161
2009-03-31 07:48:26 51°14.365 2°46.045 -999 0.088826 0.461753 -1.279161
2009-03-31 07:48:31 51°14.358 2°46.018 -999 0.088723 0.461206 -1.279161
2009-03-31 07:48:36 51°14.351 2°45.992 -999 0.088723 0.461206 -1.279161
2009-03-31 07:48:41 51°14.343 2°45.966 -999 0.088723 0.461222 -1.279161
2009-03-31 07:48:46 51°14.335 2°45.94 -999 0.088723 0.461237 -1.279161
2009-03-31 07:48:51 51°14.326 2°45.915 -999 0.088723 0.461244 -1.279161
2009-03-31 07:48:56 51°14.317 2°45.891 -999 0.088723 0.46126 -1.279161
2009-03-31 07:49:01 51°14.308 2°45.866 -999 0.088723 0.46126 -1.279161
2009-03-31 07:49:06 51°14.298 2°45.843 -999 0.088723 0.46126 -1.279161
2009-03-31 07:49:11 51°14.288 2°45.82 -999 0.088723 0.461267 -1.279161
2009-03-31 07:49:16 51°14.278 2°45.796 -999 0.088723 0.461275 -1.279161
2009-03-31 07:49:21 51°14.268 2°45.774 -999 0.088723 0.46129 -1.279161
2009-03-31 07:49:26 51°14.257 2°45.751 -999 0.088723 0.461297 -1.279161
2009-03-31 07:49:31 51°14.247 2°45.728 -999 0.088723 0.461305 -1.279161
2009-03-31 07:49:36 51°14.236 2°45.706 -999 0.088723 0.461305 -1.279161
2009-03-31 07:49:41 51°14.225 2°45.683 -999 0.088723 0.461313 -1.279161
2009-03-31 07:49:46 51°14.214 2°45.661 -999 0.088723 0.46132 -1.279161
2009-03-31 07:49:51 51°14.203 2°45.638 -999 0.088723 0.461335 -1.279161
2009-03-31 07:49:56 51°14.192 2°45.615 -999 0.088723 0.461351 -1.279161
2009-03-31 07:50:01 51°14.181 2°45.593 -999 0.088723 0.461358 -1.279161
2009-03-31 07:50:06 51°14.17 2°45.571 -999 0.088723 0.461358 -1.279161
2009-03-31 07:50:11 51°14.159 2°45.549 -999 0.088723 0.461373 -1.279161
2009-03-31 07:50:16 51°14.147 2°45.527 -999 0.088723 0.461381 -1.279161
2009-03-31 07:50:21 51°14.136 2°45.506 -999 0.088723 0.461389 -1.279161
2009-03-31 07:50:26 51°14.125 2°45.484 -999 0.088723 0.461396 -1.279161
2009-03-31 07:50:31 51°14.114 2°45.462 -999 0.088723 0.461411 -1.279161
2009-03-31 07:50:36 51°14.103 2°45.44 -999 0.088723 0.461411 -1.279161
2009-03-31 07:50:41 51°14.092 2°45.418 -999 0.088723 0.461411 -1.279161
2009-03-31 07:50:46 51°14.081 2°45.395 -999 0.088723 0.461419 -1.279161
2009-03-31 07:50:51 51°14.07 2°45.372 -999 0.088723 0.461442 -1.279161
2009-03-31 07:50:56 51°14.059 2°45.35 -999 0.088723 0.461442 -1.279161
2009-03-31 07:51:01 51°14.049 2°45.327 -999 0.088723 0.461465 -1.279161
2009-03-31 07:51:06 51°14.038 2°45.304 -999 0.088723 0.461465 -1.279161
2009-03-31 07:51:11 51°14.028 2°45.281 -999 0.088723 0.461465 -1.279161
2009-03-31 07:51:16 51°14.017 2°45.258 -999 0.088723 0.46148 -1.279161
2009-03-31 07:51:21 51°14.007 2°45.235 -999 0.088723 0.461495 -1.279161
2009-03-31 07:51:26 51°13.996 2°45.212 -999 0.088723 0.461503 -1.279161
2009-03-31 07:51:31 51°13.986 2°45.189 -999 0.088723 0.461518 -1.279161
2009-03-31 07:51:36 51°13.976 2°45.165 -999 0.088723 0.461518 -1.279161
2009-03-31 07:51:41 51°13.965 2°45.142 -999 0.088723 0.461518 -1.279161
2009-03-31 07:51:46 51°13.954 2°45.119 -999 0.088723 0.461533 -1.279161
2009-03-31 07:51:51 51°13.944 2°45.096 -999 0.088723 0.461541 -1.279161
2009-03-31 07:51:56 51°13.934 2°45.073 -999 0.088723 0.461556 -1.279161
2009-03-31 07:52:01 51°13.923 2°45.05 -999 0.088723 0.461564 -1.279161
2009-03-31 07:52:06 51°13.913 2°45.027 -999 0.088723 0.461564 -1.279161
2009-03-31 07:52:11 51°13.902 2°45.004 -999 0.088723 0.461571 -1.279161
2009-03-31 07:52:16 51°13.892 2°44.981 -999 0.088723 0.461579 -1.279161
2009-03-31 07:52:21 51°13.882 2°44.957 -999 0.088723 0.461594 -1.279161
2009-03-31 07:52:26 51°13.872 2°44.934 -999 0.088723 0.461602 -1.279161
2009-03-31 07:52:31 51°13.862 2°44.91 -999 0.088723 0.461609 -1.279161
2009-03-31 07:52:36 51°13.852 2°44.887 -999 0.088723 0.461609 -1.279161
2009-03-31 07:52:41 51°13.842 2°44.863 -999 0.088723 0.461624 -1.279161
2009-03-31 07:52:46 51°13.832 2°44.839 -999 0.088723 0.461632 -1.279161
2009-03-31 07:52:51 51°13.822 2°44.816 -999 0.088723 0.461655 -1.279161
2009-03-31 07:52:56 51°13.812 2°44.792 -999 0.088723 0.461662 -1.279161
2009-03-31 07:53:01 51°13.802 2°44.769 -999 0.088723 0.46167 -1.279161
2009-03-31 07:53:06 51°13.793 2°44.745 -999 0.088723 0.46167 -1.279161
2009-03-31 07:53:11 51°13.783 2°44.721 -999 0.088723 0.461678 -1.279161
2009-03-31 07:53:16 51°13.773 2°44.697 -999 0.088723 0.461693 -1.279161
2009-03-31 07:53:21 51°13.764 2°44.673 -999 0.088723 0.461701 -1.279161
2009-03-31 07:53:26 51°13.754 2°44.65 -999 0.088723 0.461701 -1.279161
2009-03-31 07:53:31 51°13.745 2°44.625 -999 0.088723 0.461708 -1.279161
2009-03-31 07:53:36 51°13.736 2°44.601 -999 0.088723 0.461708 -1.279161
2009-03-31 07:53:41 51°13.727 2°44.576 -999 0.088723 0.461716 -1.279161
2009-03-31 07:53:46 51°13.718 2°44.552 -999 0.088723 0.461731 -1.279161
2009-03-31 07:53:51 51°13.709 2°44.527 -999 0.088723 0.461731 -1.279161
2009-03-31 07:53:56 51°13.702 2°44.501 -999 0.088723 0.461761 -1.279161
2009-03-31 07:54:01 51°13.693 2°44.476 -999 0.088723 0.461761 -1.279161
2009-03-31 07:54:06 51°13.685 2°44.451 -999 0.088723 0.461761 -1.279161
2009-03-31 07:54:11 51°13.677 2°44.426 -999 0.088723 0.461784 -1.279161
2009-03-31 07:54:16 51°13.67 2°44.4 -999 0.088723 0.461799 -1.279161
2009-03-31 07:54:21 51°13.662 2°44.375 -999 0.088723 0.461799 -1.279161
2009-03-31 07:54:26 51°13.654 2°44.349 -999 0.088723 0.461822 -1.279161
2009-03-31 07:54:31 51°13.646 2°44.324 -999 0.088723 0.46183 -1.279161
2009-03-31 07:54:36 51°13.638 2°44.298 -999 0.088723 0.46183 -1.279161
2009-03-31 07:54:41 51°13.631 2°44.273 -999 0.088723 0.461845 -1.279161
2009-03-31 07:54:46 51°13.623 2°44.248 -999 0.088723 0.461853 -1.279161
2009-03-31 07:54:51 51°13.615 2°44.222 -999 0.088723 0.461853 -1.279161
2009-03-31 07:54:56 51°13.608 2°44.197 -999 0.08862 0.461298 -1.279161
2009-03-31 07:55:01 51°13.6 2°44.172 -999 0.088723 0.461868 -1.279161
2009-03-31 07:55:06 51°13.593 2°44.146 -999 0.088723 0.461868 -1.279161
2009-03-31 07:55:11 51°13.585 2°44.121 -999 0.08862 0.461328 -1.279161
2009-03-31 07:55:16 51°13.578 2°44.096 -999 0.08862 0.461328 -1.279161
2009-03-31 07:55:21 51°13.57 2°44.07 -999 0.08862 0.461336 -1.279161
2009-03-31 07:55:26 51°13.563 2°44.045 -999 0.08862 0.461343 -1.279161
2009-03-31 07:55:31 51°13.555 2°44.019 -999 0.08862 0.461359 -1.279161
2009-03-31 07:55:36 51°13.548 2°43.994 -999 0.08862 0.461359 -1.279161
2009-03-31 07:55:41 51°13.541 2°43.968 -999 0.08862 0.461374 -1.279161
2009-03-31 07:55:46 51°13.533 2°43.943 -999 0.08862 0.461381 -1.279161
2009-03-31 07:55:51 51°13.526 2°43.917 -999 0.08862 0.461389 -1.279161
2009-03-31 07:55:56 51°13.519 2°43.892 -999 0.08862 0.461404 -1.279161
2009-03-31 07:56:01 51°13.512 2°43.866 -999 0.08862 0.461412 -1.279161
2009-03-31 07:56:06 51°13.505 2°43.841 -999 0.08862 0.461412 -1.279161
2009-03-31 07:56:11 51°13.498 2°43.815 -999 0.08862 0.461412 -1.279161
2009-03-31 07:56:16 51°13.49 2°43.79 -999 0.08862 0.461419 -1.279161
2009-03-31 07:56:21 51°13.483 2°43.764 -999 0.08862 0.461427 -1.279161
2009-03-31 07:56:26 51°13.476 2°43.739 -999 0.08862 0.461427 -1.279161
2009-03-31 07:56:31 51°13.469 2°43.713 -999 0.08862 0.461442 -1.279161
2009-03-31 07:56:36 51°13.462 2°43.688 -999 0.08862 0.461442 -1.279161
2009-03-31 07:56:41 51°13.454 2°43.662 -999 0.08862 0.46145 -1.279161
2009-03-31 07:56:45 51°13.449 2°43.642 -999 0.08862 0.461465 -1.279161
2009-03-31 07:56:51 51°13.44 2°43.611 -999 0.08862 0.461473 -1.279161
2009-03-31 07:56:56 51°13.433 2°43.586 -999 0.08862 0.461488 -1.279161
2009-03-31 07:57:01 51°13.425 2°43.56 -999 0.08862 0.461496 -1.279161
2009-03-31 07:57:06 51°13.418 2°43.535 -999 0.08862 0.461496 -1.279161
2009-03-31 07:57:11 51°13.411 2°43.509 -999 0.08862 0.461511 -1.279161
2009-03-31 07:57:16 51°13.403 2°43.484 -999 0.08862 0.461511 -1.279161
2009-03-31 07:57:21 51°13.396 2°43.458 -999 0.08862 0.461518 -1.279161
2009-03-31 07:57:25 51°13.39 2°43.438 -999 0.08862 0.461534 -1.279161
2009-03-31 07:57:31 51°13.382 2°43.407 -999 0.08862 0.461534 -1.279161
2009-03-31 07:57:36 51°13.374 2°43.382 -999 0.08862 0.461534 -1.279161
2009-03-31 07:57:41 51°13.367 2°43.356 -999 0.08862 0.461549 -1.279161
2009-03-31 07:57:46 51°13.36 2°43.331 -999 0.08862 0.461549 -1.279161
2009-03-31 07:57:51 51°13.353 2°43.305 -999 0.08862 0.461564 -1.279161
2009-03-31 07:57:56 51°13.345 2°43.28 -999 0.08862 0.461579 -1.279161
2009-03-31 07:58:01 51°13.338 2°43.254 -999 0.08862 0.461587 -1.279161
2009-03-31 07:58:06 51°13.33 2°43.229 -999 0.08862 0.461587 -1.279161
2009-03-31 07:58:11 51°13.323 2°43.203 -999 0.08862 0.461602 -1.279161
2009-03-31 07:58:16 51°13.316 2°43.178 -999 0.08862 0.46161 -1.279161
2009-03-31 07:58:21 51°13.309 2°43.152 -999 0.08862 0.461618 -1.279161
2009-03-31 07:58:26 51°13.302 2°43.127 -999 0.08862 0.461625 -1.279161
2009-03-31 07:58:31 51°13.294 2°43.101 -999 0.08862 0.461625 -1.279161
2009-03-31 07:58:36 51°13.287 2°43.076 -999 0.08862 0.461625 -1.279161
2009-03-31 07:58:41 51°13.28 2°43.05 -999 0.08862 0.46164 -1.279161
2009-03-31 07:58:46 51°13.273 2°43.025 -999 0.08862 0.461648 -1.279161
2009-03-31 07:58:51 51°13.265 2°42.999 -999 0.08862 0.461663 -1.279161
2009-03-31 07:58:56 51°13.258 2°42.974 -999 0.08862 0.461678 -1.279161
2009-03-31 07:59:01 51°13.25 2°42.949 -999 0.08862 0.461671 -1.279161
2009-03-31 07:59:06 51°13.242 2°42.924 -999 0.08862 0.461671 -1.279161
2009-03-31 07:59:11 51°13.234 2°42.899 -999 0.08862 0.461678 -1.279161
2009-03-31 07:59:16 51°13.226 2°42.874 -999 0.08862 0.461694 -1.279161
2009-03-31 07:59:21 51°13.218 2°42.849 -999 0.08862 0.461701 -1.279161
2009-03-31 07:59:26 51°13.21 2°42.824 -999 0.08862 0.461717 -1.279161
2009-03-31 07:59:31 51°13.202 2°42.799 -999 0.08862 0.461717 -1.279161
2009-03-31 07:59:36 51°13.194 2°42.774 -999 0.08862 0.461717 -1.279161
2009-03-31 07:59:41 51°13.186 2°42.749 -999 0.08862 0.461724 -1.279161
2009-03-31 07:59:46 51°13.178 2°42.724 -999 0.08862 0.461739 -1.279161
2009-03-31 07:59:51 51°13.17 2°42.699 -999 0.08862 0.461755 -1.279161
2009-03-31 07:59:56 51°13.161 2°42.675 -999 0.08862 0.461755 -1.279161
2009-03-31 08:00:01 51°13.152 2°42.651 -999 0.08862 0.46177 -1.279161
2009-03-31 08:00:06 51°13.143 2°42.627 -999 0.08862 0.46177 -1.279161
2009-03-31 08:00:11 51°13.133 2°42.603 -999 0.08862 0.46177 -1.279161
2009-03-31 08:00:16 51°13.124 2°42.58 -999 0.08862 0.461785 -1.279161
2009-03-31 08:00:21 51°13.115 2°42.556 -999 0.08862 0.461785 -1.279161
2009-03-31 08:00:26 51°13.105 2°42.533 -999 0.08862 0.4618 -1.279161
2009-03-31 08:00:31 51°13.096 2°42.509 -999 0.08862 0.4618 -1.279161
2009-03-31 08:00:36 51°13.086 2°42.486 -999 0.08862 0.4618 -1.279161
2009-03-31 08:00:41 51°13.076 2°42.462 -999 0.08862 0.461816 -1.279161
2009-03-31 08:00:45 51°13.069 2°42.444 -999 0.08862 0.461823 -1.279161
2009-03-31 08:00:51 51°13.057 2°42.415 -999 0.08862 0.461823 -1.279161
2009-03-31 08:00:56 51°13.047 2°42.392 -999 0.08862 0.461839 -1.279161
2009-03-31 08:01:01 51°13.038 2°42.369 -999 0.08862 0.461854 -1.279161
2009-03-31 08:01:06 51°13.028 2°42.345 -999 0.08862 0.461854 -1.279161
2009-03-31 08:01:11 51°13.018 2°42.322 -999 0.08862 0.461854 -1.279161
2009-03-31 08:01:16 51°13.009 2°42.299 -999 0.08862 0.461869 -1.279161
2009-03-31 08:01:21 51°12.999 2°42.275 -999 0.08862 0.461869 -1.279161
2009-03-31 08:01:25 51°12.991 2°42.257 -999 0.08862 0.461892 -1.279161
2009-03-31 08:01:31 51°12.979 2°42.229 -999 0.08862 0.461892 -1.279161
2009-03-31 08:01:36 51°12.97 2°42.205 -999 0.08862 0.461892 -1.279161
2009-03-31 08:01:41 51°12.96 2°42.182 -999 0.08862 0.4619 -1.279161
2009-03-31 08:01:46 51°12.95 2°42.159 -999 0.08862 0.461915 -1.279161
2009-03-31 08:01:51 51°12.941 2°42.135 -999 0.08862 0.461923 -1.279161
2009-03-31 08:01:56 51°12.931 2°42.112 -999 0.08862 0.46193 -1.279161
2009-03-31 08:02:01 51°12.921 2°42.089 -999 0.08862 0.461938 -1.279161
2009-03-31 08:02:06 51°12.911 2°42.066 -999 0.08862 0.461938 -1.279161
2009-03-31 08:02:11 51°12.901 2°42.043 -999 0.08862 0.461945 -1.279161
2009-03-31 08:02:16 51°12.892 2°42.019 -999 0.08862 0.461961 -1.279161
2009-03-31 08:02:21 51°12.882 2°41.996 -999 0.08862 0.461961 -1.279161
2009-03-31 08:02:26 51°12.872 2°41.972 -999 0.08862 0.461984 -1.279161
2009-03-31 08:02:31 51°12.862 2°41.949 -999 0.08862 0.461984 -1.279161
2009-03-31 08:02:36 51°12.853 2°41.926 -999 0.08862 0.461984 -1.279161
2009-03-31 08:02:41 51°12.844 2°41.902 -999 0.08862 0.461999 -1.279161
2009-03-31 08:02:46 51°12.834 2°41.879 -999 0.08862 0.461999 -1.279161
2009-03-31 08:02:51 51°12.825 2°41.854 -999 0.08862 0.462022 -1.279161
2009-03-31 08:02:56 51°12.816 2°41.83 -999 0.08862 0.462014 -1.279161
2009-03-31 08:03:01 51°12.808 2°41.806 -999 0.08862 0.462037 -1.279161
2009-03-31 08:03:06 51°12.799 2°41.782 -999 0.08862 0.462037 -1.279161
2009-03-31 08:03:11 51°12.79 2°41.757 -999 0.08862 0.462045 -1.279161
2009-03-31 08:03:16 51°12.782 2°41.733 -999 0.08862 0.462045 -1.279161
2009-03-31 08:03:21 51°12.772 2°41.709 -999 0.08862 0.462068 -1.279161
2009-03-31 08:03:26 51°12.764 2°41.685 -999 0.08862 0.462068 -1.279161
2009-03-31 08:03:31 51°12.755 2°41.661 -999 0.08862 0.462091 -1.279161
2009-03-31 08:03:36 51°12.746 2°41.638 -999 0.08862 0.462091 -1.279161
2009-03-31 08:03:41 51°12.736 2°41.614 -999 0.08862 0.462091 -1.279161
2009-03-31 08:03:46 51°12.728 2°41.59 -999 0.08862 0.462098 -1.279161
2009-03-31 08:03:51 51°12.719 2°41.565 -999 0.08862 0.462114 -1.279161
2009-03-31 08:03:56 51°12.71 2°41.541 -999 0.08862 0.462129 -1.279161
2009-03-31 08:04:01 51°12.702 2°41.517 -999 0.08862 0.462129 -1.279161
2009-03-31 08:04:06 51°12.693 2°41.493 -999 0.08862 0.462129 -1.279161
2009-03-31 08:04:11 51°12.685 2°41.468 -999 0.08862 0.462136 -1.279161
2009-03-31 08:04:16 51°12.677 2°41.443 -999 0.08862 0.462159 -1.279161
2009-03-31 08:04:21 51°12.668 2°41.418 -999 0.08862 0.462167 -1.279161
2009-03-31 08:04:26 51°12.66 2°41.393 -999 0.08862 0.462175 -1.279161
2009-03-31 08:04:31 51°12.652 2°41.369 -999 0.08862 0.46219 -1.279161
2009-03-31 08:04:36 51°12.643 2°41.345 -999 0.08862 0.46219 -1.279161
2009-03-31 08:04:41 51°12.635 2°41.32 -999 0.08862 0.462213 -1.279161
2009-03-31 08:04:46 51°12.626 2°41.296 -999 0.08862 0.462213 -1.279161
2009-03-31 08:04:51 51°12.617 2°41.272 -999 0.08862 0.462213 -1.279161
2009-03-31 08:04:56 51°12.609 2°41.247 -999 0.08862 0.46222 -1.279161
2009-03-31 08:05:01 51°12.6 2°41.222 -999 0.088517 0.46168 -1.279161
2009-03-31 08:05:06 51°12.592 2°41.198 -999 0.088517 0.46168 -1.279161
2009-03-31 08:05:11 51°12.583 2°41.173 -999 0.08862 0.462251 -1.279161
2009-03-31 08:05:16 51°12.575 2°41.148 -999 0.08862 0.462251 -1.279161
2009-03-31 08:05:21 51°12.567 2°41.123 -999 0.088517 0.461695 -1.279161
2009-03-31 08:05:26 51°12.558 2°41.099 -999 0.088517 0.461702 -1.279161
2009-03-31 08:05:31 51°12.55 2°41.074 -999 0.088517 0.461718 -1.279161
2009-03-31 08:05:36 51°12.542 2°41.049 -999 0.088517 0.461718 -1.279161
2009-03-31 08:05:41 51°12.533 2°41.024 -999 0.088517 0.461733 -1.279161
2009-03-31 08:05:46 51°12.525 2°40.999 -999 0.088517 0.461748 -1.279161
2009-03-31 08:05:51 51°12.517 2°40.975 -999 0.088517 0.461756 -1.279161
2009-03-31 08:05:56 51°12.508 2°40.95 -999 0.088517 0.461764 -1.279161
2009-03-31 08:06:01 51°12.5 2°40.925 -999 0.088517 0.461771 -1.279161
2009-03-31 08:06:06 51°12.491 2°40.901 -999 0.088517 0.461771 -1.279161
2009-03-31 08:06:11 51°12.482 2°40.877 -999 0.088517 0.461771 -1.279161
2009-03-31 08:06:16 51°12.473 2°40.853 -999 0.088517 0.461786 -1.279161
2009-03-31 08:06:21 51°12.464 2°40.829 -999 0.088517 0.461794 -1.279161
2009-03-31 08:06:26 51°12.454 2°40.805 -999 0.088517 0.461794 -1.279161
2009-03-31 08:06:31 51°12.445 2°40.782 -999 0.088517 0.461817 -1.279161
2009-03-31 08:06:36 51°12.435 2°40.758 -999 0.088517 0.461817 -1.279161
2009-03-31 08:06:41 51°12.426 2°40.735 -999 0.088517 0.461825 -1.279161
2009-03-31 08:06:46 51°12.416 2°40.711 -999 0.088517 0.461832 -1.279161
2009-03-31 08:06:51 51°12.407 2°40.687 -999 0.088517 0.461848 -1.279161
2009-03-31 08:06:56 51°12.398 2°40.664 -999 0.088517 0.461855 -1.279161
2009-03-31 08:07:01 51°12.388 2°40.64 -999 0.088517 0.461871 -1.279161
2009-03-31 08:07:06 51°12.379 2°40.616 -999 0.088517 0.461871 -1.279161
2009-03-31 08:07:11 51°12.369 2°40.593 -999 0.088517 0.461878 -1.279161
2009-03-31 08:07:16 51°12.36 2°40.569 -999 0.088517 0.461886 -1.279161
2009-03-31 08:07:21 51°12.35 2°40.545 -999 0.088517 0.461893 -1.279161
2009-03-31 08:07:26 51°12.341 2°40.522 -999 0.088517 0.461893 -1.279161
2009-03-31 08:07:31 51°12.331 2°40.498 -999 0.088517 0.461901 -1.279161
2009-03-31 08:07:36 51°12.322 2°40.474 -999 0.088517 0.461901 -1.279161
2009-03-31 08:07:41 51°12.312 2°40.451 -999 0.088517 0.461909 -1.279161
2009-03-31 08:07:46 51°12.303 2°40.427 -999 0.088517 0.461916 -1.279161
2009-03-31 08:07:51 51°12.293 2°40.403 -999 0.088517 0.461932 -1.279161
2009-03-31 08:07:56 51°12.283 2°40.379 -999 0.088517 0.461932 -1.279161
2009-03-31 08:08:01 51°12.274 2°40.355 -999 0.088517 0.461947 -1.279161
2009-03-31 08:08:06 51°12.264 2°40.332 -999 0.088517 0.461947 -1.279161
2009-03-31 08:08:11 51°12.255 2°40.308 -999 0.088517 0.461962 -1.279161
2009-03-31 08:08:16 51°12.246 2°40.284 -999 0.088517 0.461978 -1.279161
2009-03-31 08:08:21 51°12.236 2°40.26 -999 0.088517 0.461985 -1.279161
2009-03-31 08:08:26 51°12.227 2°40.237 -999 0.088517 0.462 -1.279161
2009-03-31 08:08:31 51°12.217 2°40.213 -999 0.088517 0.462 -1.279161
2009-03-31 08:08:36 51°12.207 2°40.19 -999 0.088517 0.462 -1.279161
2009-03-31 08:08:41 51°12.198 2°40.166 -999 0.088517 0.462 -1.279161
2009-03-31 08:08:46 51°12.188 2°40.143 -999 0.088517 0.462016 -1.279161
2009-03-31 08:08:51 51°12.179 2°40.119 -999 0.088517 0.462031 -1.279161
2009-03-31 08:08:56 51°12.17 2°40.096 -999 0.088517 0.462039 -1.279161
2009-03-31 08:09:01 51°12.16 2°40.072 -999 0.088517 0.462054 -1.279161
2009-03-31 08:09:06 51°12.151 2°40.048 -999 0.088517 0.462054 -1.279161
2009-03-31 08:09:11 51°12.141 2°40.025 -999 0.088517 0.462054 -1.279161
2009-03-31 08:09:16 51°12.132 2°40.002 -999 0.088517 0.462062 -1.279161
2009-03-31 08:09:21 51°12.122 2°39.978 -999 0.088517 0.462077 -1.279161
2009-03-31 08:09:26 51°12.113 2°39.955 -999 0.088517 0.462085 -1.279161
2009-03-31 08:09:31 51°12.103 2°39.932 -999 0.088517 0.462092 -1.279161
2009-03-31 08:09:36 51°12.093 2°39.908 -999 0.088517 0.462092 -1.279161
2009-03-31 08:09:41 51°12.084 2°39.885 -999 0.088517 0.4621 -1.279161
2009-03-31 08:09:46 51°12.074 2°39.861 -999 0.088517 0.462115 -1.279161
2009-03-31 08:09:51 51°12.065 2°39.838 -999 0.088517 0.462123 -1.279161
2009-03-31 08:09:56 51°12.055 2°39.814 -999 0.088517 0.462123 -1.279161
2009-03-31 08:10:01 51°12.046 2°39.791 -999 0.088517 0.462138 -1.279161
2009-03-31 08:10:06 51°12.036 2°39.768 -999 0.088517 0.462138 -1.279161
2009-03-31 08:10:11 51°12.027 2°39.744 -999 0.088517 0.462154 -1.279161
2009-03-31 08:10:16 51°12.018 2°39.721 -999 0.088517 0.462154 -1.279161
2009-03-31 08:10:21 51°12.008 2°39.698 -999 0.088517 0.462161 -1.279161
2009-03-31 08:10:26 51°11.998 2°39.674 -999 0.088517 0.462184 -1.279161
2009-03-31 08:10:31 51°11.989 2°39.65 -999 0.088517 0.462184 -1.279161
2009-03-31 08:10:36 51°11.98 2°39.627 -999 0.088517 0.462184 -1.279161
2009-03-31 08:10:41 51°11.97 2°39.604 -999 0.088517 0.462192 -1.279161
2009-03-31 08:10:46 51°11.961 2°39.58 -999 0.088517 0.462207 -1.279161
2009-03-31 08:10:51 51°11.951 2°39.557 -999 0.088517 0.462207 -1.279161
2009-03-31 08:10:56 51°11.942 2°39.533 -999 0.088517 0.462222 -1.279161
2009-03-31 08:11:01 51°11.932 2°39.51 -999 0.088517 0.46223 -1.279161
2009-03-31 08:11:06 51°11.923 2°39.486 -999 0.088517 0.46223 -1.279161
2009-03-31 08:11:11 51°11.914 2°39.463 -999 0.088517 0.462238 -1.279161
2009-03-31 08:11:16 51°11.904 2°39.439 -999 0.088517 0.462253 -1.279161
2009-03-31 08:11:21 51°11.895 2°39.416 -999 0.088517 0.462253 -1.279161
2009-03-31 08:11:26 51°11.885 2°39.393 -999 0.088517 0.462268 -1.279161
2009-03-31 08:11:31 51°11.876 2°39.369 -999 0.088517 0.462276 -1.279161
2009-03-31 08:11:36 51°11.867 2°39.345 -999 0.088517 0.462276 -1.279161
2009-03-31 08:11:41 51°11.857 2°39.322 -999 0.088517 0.462291 -1.279161
2009-03-31 08:11:46 51°11.847 2°39.299 -999 0.088517 0.462299 -1.279161
2009-03-31 08:11:51 51°11.838 2°39.276 -999 0.088517 0.462307 -1.279161
2009-03-31 08:11:56 51°11.829 2°39.252 -999 0.088517 0.462322 -1.279161
2009-03-31 08:12:01 51°11.819 2°39.229 -999 0.088517 0.462322 -1.279161
2009-03-31 08:12:06 51°11.81 2°39.206 -999 0.088517 0.462322 -1.279161
2009-03-31 08:12:11 51°11.8 2°39.183 -999 0.088517 0.462337 -1.279161
2009-03-31 08:12:16 51°11.791 2°39.159 -999 0.088517 0.462345 -1.279161
2009-03-31 08:12:21 51°11.781 2°39.136 -999 0.088517 0.462353 -1.279161
2009-03-31 08:12:26 51°11.772 2°39.113 -999 0.088517 0.462368 -1.279161
2009-03-31 08:12:31 51°11.762 2°39.089 -999 0.088517 0.462368 -1.279161
2009-03-31 08:12:36 51°11.753 2°39.066 -999 0.088517 0.462368 -1.279161
2009-03-31 08:12:41 51°11.743 2°39.042 -999 0.088517 0.462391 -1.279161
2009-03-31 08:12:46 51°11.734 2°39.019 -999 0.088517 0.462391 -1.279161
2009-03-31 08:12:51 51°11.724 2°38.996 -999 0.088517 0.462414 -1.279161
2009-03-31 08:12:56 51°11.715 2°38.973 -999 0.088517 0.462414 -1.279161
2009-03-31 08:13:01 51°11.705 2°38.949 -999 0.088517 0.462429 -1.279161
2009-03-31 08:13:06 51°11.695 2°38.926 -999 0.088517 0.462429 -1.279161
2009-03-31 08:13:11 51°11.686 2°38.903 -999 0.088517 0.462437 -1.279161
2009-03-31 08:13:16 51°11.676 2°38.879 -999 0.088517 0.462437 -1.279161
2009-03-31 08:13:21 51°11.667 2°38.855 -999 0.088517 0.46246 -1.279161
2009-03-31 08:13:26 51°11.658 2°38.832 -999 0.088517 0.46246 -1.279161
2009-03-31 08:13:31 51°11.648 2°38.808 -999 0.088517 0.462468 -1.279161
2009-03-31 08:13:36 51°11.639 2°38.784 -999 0.088517 0.462468 -1.279161
2009-03-31 08:13:41 51°11.629 2°38.76 -999 0.088517 0.462491 -1.279161
2009-03-31 08:13:46 51°11.62 2°38.737 -999 0.088517 0.462491 -1.279161
2009-03-31 08:13:51 51°11.61 2°38.714 -999 0.088517 0.462498 -1.279161
2009-03-31 08:13:56 51°11.601 2°38.69 -999 0.088517 0.462514 -1.279161
2009-03-31 08:14:01 51°11.591 2°38.666 -999 0.088517 0.462529 -1.279161
2009-03-31 08:14:06 51°11.582 2°38.643 -999 0.088517 0.462529 -1.279161
2009-03-31 08:14:11 51°11.573 2°38.619 -999 0.088517 0.462529 -1.279161
2009-03-31 08:14:16 51°11.563 2°38.596 -999 0.088517 0.462544 -1.279161
2009-03-31 08:14:21 51°11.553 2°38.572 -999 0.088517 0.462552 -1.279161
2009-03-31 08:14:26 51°11.544 2°38.549 -999 0.088517 0.46256 -1.279161
2009-03-31 08:14:31 51°11.535 2°38.525 -999 0.088517 0.462567 -1.279161
2009-03-31 08:14:36 51°11.525 2°38.502 -999 0.088517 0.462567 -1.279161
2009-03-31 08:14:41 51°11.516 2°38.479 -999 0.088517 0.462583 -1.279161
2009-03-31 08:14:46 51°11.506 2°38.456 -999 0.088517 0.462598 -1.279161
2009-03-31 08:14:51 51°11.496 2°38.433 -999 0.088517 0.462598 -1.279161
2009-03-31 08:14:56 51°11.487 2°38.409 -999 0.088517 0.462606 -1.279161
2009-03-31 08:15:01 51°11.477 2°38.386 -999 0.088517 0.462621 -1.279161
2009-03-31 08:15:06 51°11.467 2°38.363 -999 0.088517 0.462621 -1.279161
2009-03-31 08:15:11 51°11.458 2°38.34 -999 0.088517 0.462629 -1.279161
2009-03-31 08:15:16 51°11.448 2°38.316 -999 0.088517 0.462636 -1.279161
2009-03-31 08:15:21 51°11.439 2°38.292 -999 0.088517 0.462644 -1.279161
2009-03-31 08:15:26 51°11.43 2°38.269 -999 0.088517 0.462652 -1.279161
2009-03-31 08:15:31 51°11.42 2°38.246 -999 0.088517 0.462667 -1.279161
2009-03-31 08:15:36 51°11.411 2°38.222 -999 0.088517 0.462667 -1.279161
2009-03-31 08:15:41 51°11.401 2°38.199 -999 0.088517 0.462682 -1.279161
2009-03-31 08:15:46 51°11.391 2°38.175 -999 0.088517 0.46269 -1.279161
2009-03-31 08:15:51 51°11.382 2°38.152 -999 0.088517 0.46269 -1.279161
2009-03-31 08:15:56 51°11.373 2°38.128 -999 0.088517 0.462705 -1.279161
2009-03-31 08:16:01 51°11.363 2°38.105 -999 0.088517 0.462713 -1.279161
2009-03-31 08:16:06 51°11.354 2°38.082 -999 0.088517 0.462713 -1.279161
2009-03-31 08:16:11 51°11.344 2°38.058 -999 0.088517 0.462713 -1.279161
2009-03-31 08:16:16 51°11.335 2°38.035 -999 0.088517 0.462728 -1.279161
2009-03-31 08:16:21 51°11.325 2°38.011 -999 0.088517 0.462736 -1.279161
2009-03-31 08:16:26 51°11.316 2°37.988 -999 0.088414 0.462186 -1.279161
2009-03-31 08:16:31 51°11.306 2°37.964 -999 0.088517 0.462759 -1.279161
2009-03-31 08:16:36 51°11.297 2°37.941 -999 0.088517 0.462759 -1.279161
2009-03-31 08:16:41 51°11.287 2°37.917 -999 0.088517 0.462759 -1.279161
2009-03-31 08:16:46 51°11.278 2°37.893 -999 0.088517 0.462774 -1.279161
2009-03-31 08:16:51 51°11.268 2°37.87 -999 0.088517 0.462782 -1.279161
2009-03-31 08:16:56 51°11.259 2°37.847 -999 0.088414 0.46224 -1.279161
2009-03-31 08:17:01 51°11.249 2°37.823 -999 0.088414 0.462248 -1.279161
2009-03-31 08:17:06 51°11.239 2°37.8 -999 0.088414 0.462248 -1.279161
2009-03-31 08:17:11 51°11.23 2°37.777 -999 0.088414 0.462255 -1.279161
2009-03-31 08:17:16 51°11.22 2°37.754 -999 0.088414 0.462255 -1.313985
2009-03-31 08:17:21 51°11.21 2°37.73 -999 0.088414 0.462271 -1.279161
2009-03-31 08:17:26 51°11.201 2°37.707 -999 0.088414 0.462278 -1.279161
2009-03-31 08:17:31 51°11.191 2°37.683 -999 0.088414 0.462286 -1.279161
2009-03-31 08:17:36 51°11.182 2°37.66 -999 0.088414 0.462286 -1.279161
2009-03-31 08:17:41 51°11.172 2°37.636 -999 0.088414 0.462294 -1.279161
2009-03-31 08:17:45 51°11.165 2°37.617 -999 0.088414 0.462301 -1.279161
2009-03-31 08:17:51 51°11.154 2°37.589 -999 0.088414 0.462309 -1.279161
2009-03-31 08:17:56 51°11.144 2°37.566 -999 0.088414 0.462317 -1.279161
2009-03-31 08:18:01 51°11.135 2°37.542 -999 0.088414 0.462324 -1.279161
2009-03-31 08:18:06 51°11.125 2°37.518 -999 0.088414 0.462324 -1.279161
2009-03-31 08:18:11 51°11.115 2°37.495 -999 0.088414 0.462332 -1.279161
2009-03-31 08:18:16 51°11.106 2°37.471 -999 0.088414 0.462347 -1.279161
2009-03-31 08:18:21 51°11.097 2°37.447 -999 0.088414 0.462355 -1.279161
2009-03-31 08:18:25 51°11.089 2°37.428 -999 0.088414 0.46237 -1.279161
2009-03-31 08:18:31 51°11.077 2°37.4 -999 0.088414 0.46237 -1.279161
2009-03-31 08:18:36 51°11.068 2°37.376 -999 0.088414 0.46237 -1.279161
2009-03-31 08:18:41 51°11.059 2°37.352 -999 0.088414 0.462378 -1.279161
2009-03-31 08:18:46 51°11.049 2°37.328 -999 0.088414 0.462386 -1.279161
2009-03-31 08:18:51 51°11.04 2°37.305 -999 0.088414 0.462393 -1.279161
2009-03-31 08:18:56 51°11.03 2°37.281 -999 0.088414 0.462409 -1.279161
2009-03-31 08:19:01 51°11.021 2°37.257 -999 0.088414 0.462416 -1.279161
2009-03-31 08:19:06 51°11.011 2°37.234 -999 0.088414 0.462416 -1.279161
2009-03-31 08:19:11 51°11.002 2°37.21 -999 0.088414 0.462424 -1.279161
2009-03-31 08:19:16 51°10.992 2°37.186 -999 0.088414 0.462432 -1.279161
2009-03-31 08:19:21 51°10.983 2°37.163 -999 0.088414 0.462439 -1.279161
2009-03-31 08:19:26 51°10.973 2°37.139 -999 0.088414 0.462447 -1.279161
2009-03-31 08:19:31 51°10.964 2°37.115 -999 0.088414 0.462462 -1.279161
2009-03-31 08:19:36 51°10.954 2°37.092 -999 0.088414 0.462462 -1.279161
2009-03-31 08:19:41 51°10.944 2°37.068 -999 0.088414 0.462462 -1.279161
2009-03-31 08:19:46 51°10.935 2°37.044 -999 0.088414 0.462478 -1.279161
2009-03-31 08:19:51 51°10.926 2°37.021 -999 0.088414 0.462486 -1.279161
2009-03-31 08:19:56 51°10.916 2°36.997 -999 0.088414 0.462493 -1.279161
2009-03-31 08:20:01 51°10.907 2°36.973 -999 0.088414 0.462501 -1.279161
2009-03-31 08:20:06 51°10.897 2°36.95 -999 0.088414 0.462501 -1.279161
2009-03-31 08:20:11 51°10.887 2°36.926 -999 0.088414 0.462509 -1.279161
2009-03-31 08:20:16 51°10.878 2°36.903 -999 0.088414 0.462516 -1.279161
2009-03-31 08:20:21 51°10.868 2°36.879 -999 0.088414 0.462532 -1.279161
2009-03-31 08:20:26 51°10.858 2°36.857 -999 0.088414 0.462539 -1.279161
2009-03-31 08:20:31 51°10.848 2°36.834 -999 0.088414 0.462562 -1.279161
2009-03-31 08:20:36 51°10.837 2°36.812 -999 0.088414 0.462562 -1.279161
2009-03-31 08:20:41 51°10.826 2°36.79 -999 0.088414 0.462555 -1.279161
2009-03-31 08:20:46 51°10.815 2°36.768 -999 0.088414 0.46257 -1.279161
2009-03-31 08:20:51 51°10.804 2°36.746 -999 0.088414 0.462578 -1.279161
2009-03-31 08:20:56 51°10.793 2°36.725 -999 0.088414 0.462585 -1.279161
2009-03-31 08:21:01 51°10.782 2°36.703 -999 0.088414 0.462593 -1.279161
2009-03-31 08:21:06 51°10.771 2°36.681 -999 0.088414 0.462593 -1.279161
2009-03-31 08:21:11 51°10.759 2°36.66 -999 0.088414 0.462601 -1.279161
2009-03-31 08:21:16 51°10.748 2°36.639 -999 0.088414 0.462608 -1.279161
2009-03-31 08:21:21 51°10.736 2°36.619 -999 0.088414 0.462631 -1.279161
2009-03-31 08:21:26 51°10.722 2°36.601 -999 0.088414 0.462631 -1.279161
2009-03-31 08:21:31 51°10.71 2°36.583 -999 0.088414 0.462647 -1.279161
2009-03-31 08:21:36 51°10.696 2°36.566 -999 0.088414 0.462647 -1.279161
2009-03-31 08:21:41 51°10.683 2°36.549 -999 0.088414 0.462655 -1.279161
2009-03-31 08:21:46 51°10.668 2°36.534 -999 0.088414 0.462655 -1.279161
2009-03-31 08:21:51 51°10.654 2°36.518 -999 0.088414 0.462685 -1.279161
2009-03-31 08:21:56 51°10.639 2°36.506 -999 0.088414 0.462678 -1.279161
2009-03-31 08:22:01 51°10.624 2°36.493 -999 0.088414 0.462701 -1.279161
2009-03-31 08:22:06 51°10.609 2°36.481 -999 0.088414 0.462701 -1.279161
2009-03-31 08:22:11 51°10.593 2°36.471 -999 0.088414 0.462708 -1.279161
2009-03-31 08:22:16 51°10.578 2°36.462 -999 0.088414 0.462724 -0.826448
2009-03-31 08:22:21 51°10.562 2°36.454 -999 0.088414 0.462724 -0.7568
2009-03-31 08:22:26 51°10.546 2°36.445 -999 0.088414 0.462747 4.536456
2009-03-31 08:22:31 51°10.529 2°36.44 -999 0.088414 0.462739 5.999067
2009-03-31 08:22:36 51°10.513 2°36.434 -999 0.088414 0.462739 5.999067
2009-03-31 08:22:41 51°10.497 2°36.431 -999 0.088414 0.462754 8.715343
2009-03-31 08:22:46 51°10.481 2°36.427 -999 0.088414 0.462762 8.227806
2009-03-31 08:22:51 51°10.464 2°36.425 -999 0.088414 0.46277 6.382131
2009-03-31 08:22:56 51°10.448 2°36.424 -999 0.088414 0.462778 5.790122
2009-03-31 08:23:01 51°10.432 2°36.422 -999 0.088414 0.462785 4.745401
2009-03-31 08:23:06 51°10.416 2°36.422 -999 0.088414 0.462785 4.745401
2009-03-31 08:23:11 51°10.399 2°36.422 -999 0.088414 0.462793 4.431984
2009-03-31 08:23:16 51°10.383 2°36.422 -999 0.088414 0.462801 3.944447
2009-03-31 08:23:21 51°10.366 2°36.423 -999 0.088414 0.462816 3.700679
2009-03-31 08:23:26 51°10.35 2°36.423 -999 0.088414 0.462824 3.491735
2009-03-31 08:23:31 51°10.333 2°36.424 -999 0.088414 0.462831 3.352439
2009-03-31 08:23:36 51°10.316 2°36.424 -999 0.088414 0.462831 3.352439
2009-03-31 08:23:41 51°10.299 2°36.424 -999 0.088414 0.462847 3.28279
2009-03-31 08:23:45 51°10.285 2°36.424 -999 0.088414 0.462839 3.979271
2009-03-31 08:23:51 51°10.265 2°36.42 -999 0.088414 0.462862 3.213142
2009-03-31 08:23:56 51°10.248 2°36.419 -999 0.088414 0.462854 3.247966
2009-03-31 08:24:01 51°10.23 2°36.414 -999 0.088414 0.462878 3.387263
2009-03-31 08:24:06 51°10.214 2°36.411 -999 0.088414 0.462878 3.387263
2009-03-31 08:24:11 51°10.197 2°36.407 -999 0.088414 0.462885 3.700679
2009-03-31 08:24:16 51°10.18 2°36.403 -999 0.088414 0.462901 3.735503
2009-03-31 08:24:21 51°10.163 2°36.398 -999 0.088414 0.462908 3.979271
2009-03-31 08:24:25 51°10.149 2°36.395 -999 0.088414 0.462916 3.700679
2009-03-31 08:24:31 51°10.129 2°36.389 -999 0.088414 0.462931 3.700679
2009-03-31 08:24:36 51°10.112 2°36.384 -999 0.088414 0.462931 3.700679
2009-03-31 08:24:41 51°10.095 2°36.378 -999 0.088414 0.462939 3.874799
2009-03-31 08:24:46 51°10.078 2°36.373 -999 0.088414 0.462947 3.944447
2009-03-31 08:24:51 51°10.062 2°36.367 -999 0.088414 0.462962 4.39716
2009-03-31 08:24:56 51°10.045 2°36.362 -999 0.088414 0.462962 4.39716
2009-03-31 08:25:01 51°10.028 2°36.356 -999 0.088414 0.462978 4.57128
2009-03-31 08:25:06 51°10.011 2°36.352 -999 0.088414 0.462978 4.57128
2009-03-31 08:25:11 51°9.994 2°36.346 -999 0.088414 0.462978 4.780225
2009-03-31 08:25:16 51°9.977 2°36.342 -999 0.088414 0.462993 4.989169
2009-03-31 08:25:21 51°9.96 2°36.337 -999 0.088414 0.463001 5.198113
2009-03-31 08:25:26 51°9.944 2°36.332 -999 0.088414 0.463016 5.33741
2009-03-31 08:25:31 51°9.927 2°36.328 -999 0.088414 0.463024 5.581178
2009-03-31 08:25:36 51°9.91 2°36.323 -999 0.088414 0.463024 5.581178
2009-03-31 08:25:41 51°9.893 2°36.318 -999 0.088414 0.463039 5.824946
2009-03-31 08:25:46 51°9.876 2°36.313 -999 0.088414 0.463047 5.894594
2009-03-31 08:25:51 51°9.859 2°36.308 -999 0.088414 0.463055 6.068715
2009-03-31 08:25:56 51°9.842 2°36.303 -999 0.088414 0.463062 6.242835
2009-03-31 08:26:01 51°9.825 2°36.299 -999 0.088414 0.46307 6.347307
2009-03-31 08:26:06 51°9.808 2°36.295 -999 0.088414 0.46307 6.347307
2009-03-31 08:26:11 51°9.791 2°36.291 -999 0.088414 0.463078 6.382131
2009-03-31 08:26:16 51°9.774 2°36.287 -999 0.088414 0.463085 6.451779
2009-03-31 08:26:21 51°9.757 2°36.282 -999 0.088414 0.463085 6.521427
2009-03-31 08:26:26 51°9.74 2°36.279 -999 0.088414 0.463101 6.556251
2009-03-31 08:26:31 51°9.723 2°36.276 -999 0.088414 0.463109 6.6259
2009-03-31 08:26:36 51°9.706 2°36.273 -999 0.088414 0.463109 6.6259
2009-03-31 08:26:41 51°9.689 2°36.27 -999 0.088414 0.463124 6.6259
2009-03-31 08:26:46 51°9.672 2°36.27 -999 0.088414 0.463124 6.660724
2009-03-31 08:26:51 51°9.657 2°36.268 -999 0.088414 0.463147 6.660724
2009-03-31 08:26:56 51°9.641 2°36.267 -999 0.088414 0.463155 6.695548
2009-03-31 08:27:01 51°9.627 2°36.267 -999 0.088414 0.463155 6.730372
2009-03-31 08:27:06 51°9.613 2°36.267 -999 0.088414 0.463155 6.730372
2009-03-31 08:27:11 51°9.599 2°36.267 -999 0.088414 0.46317 6.765196
2009-03-31 08:27:16 51°9.586 2°36.267 -999 0.088414 0.46317 6.869668
2009-03-31 08:27:21 51°9.574 2°36.267 -999 0.088414 0.463178 6.834844
2009-03-31 08:27:26 51°9.563 2°36.267 -999 0.088414 0.463178 6.80002
2009-03-31 08:27:31 51°9.552 2°36.267 -999 0.088414 0.463186 6.80002
2009-03-31 08:27:36 51°9.542 2°36.267 -999 0.088414 0.463186 6.80002
2009-03-31 08:27:41 51°9.532 2°36.268 -999 0.088414 0.463193 6.834844
2009-03-31 08:27:46 51°9.522 2°36.268 -999 0.088414 0.463193 6.834844
2009-03-31 08:27:51 51°9.513 2°36.268 -999 0.088414 0.463209 6.80002
2009-03-31 08:27:56 51°9.504 2°36.268 -999 0.088414 0.463209 6.834844
2009-03-31 08:28:01 51°9.495 2°36.268 -999 0.088414 0.463224 6.834844
2009-03-31 08:28:06 51°9.486 2°36.268 -999 0.088414 0.463224 6.834844
2009-03-31 08:28:11 51°9.477 2°36.267 -999 0.088414 0.463224 6.80002
2009-03-31 08:28:16 51°9.469 2°36.267 -999 0.088414 0.463232 6.765196
2009-03-31 08:28:21 51°9.461 2°36.267 -999 0.088414 0.463247 6.695548
2009-03-31 08:28:25 51°9.454 2°36.267 -999 0.088414 0.463255 6.730372
2009-03-31 08:28:31 51°9.444 2°36.269 -999 0.088414 0.463263 6.695548
2009-03-31 08:28:36 51°9.436 2°36.27 -999 0.088414 0.463263 6.695548
2009-03-31 08:28:41 51°9.428 2°36.273 -999 0.088414 0.46327 6.730372
2009-03-31 08:28:46 51°9.42 2°36.276 -999 0.088414 0.463286 6.695548
2009-03-31 08:28:51 51°9.412 2°36.28 -999 0.088414 0.463286 6.730372
2009-03-31 08:28:56 51°9.403 2°36.285 -999 0.088414 0.463301 6.730372
2009-03-31 08:29:01 51°9.395 2°36.29 -999 0.088414 0.463309 6.730372
2009-03-31 08:29:05 51°9.389 2°36.295 -999 0.088414 0.463309 6.730372
2009-03-31 08:29:11 51°9.379 2°36.303 -999 0.088414 0.463317 6.730372
2009-03-31 08:29:16 51°9.372 2°36.311 -999 0.088414 0.463324 6.765196
2009-03-31 08:29:21 51°9.364 2°36.319 -999 0.088414 0.463332 6.730372
2009-03-31 08:29:26 51°9.357 2°36.328 -999 0.088414 0.46334 6.834844
2009-03-31 08:29:31 51°9.349 2°36.337 -999 0.088414 0.46334 6.834844
2009-03-31 08:29:36 51°9.342 2°36.347 -999 0.088414 0.46334 6.834844
2009-03-31 08:29:41 51°9.335 2°36.357 -999 0.088414 0.463347 6.939316
2009-03-31 08:29:45 51°9.33 2°36.365 -999 0.088414 0.463347 6.939316
2009-03-31 08:29:51 51°9.322 2°36.378 -999 0.088414 0.463363 7.043788
2009-03-31 08:29:56 51°9.315 2°36.389 -999 0.088414 0.463355 7.043788
2009-03-31 08:30:01 51°9.309 2°36.401 -999 0.088414 0.463371 7.008964
2009-03-31 08:30:06 51°9.303 2°36.412 -999 0.088414 0.463371 7.008964
2009-03-31 08:30:11 51°9.298 2°36.425 -999 0.088414 0.463378 6.904492
2009-03-31 08:30:16 51°9.293 2°36.437 -999 0.088414 0.463386 6.834844
2009-03-31 08:30:21 51°9.288 2°36.45 -999 0.088414 0.463386 6.695548
2009-03-31 08:30:26 51°9.284 2°36.463 -999 0.088414 0.463401 6.591076
2009-03-31 08:30:31 51°9.279 2°36.476 -999 0.088414 0.463409 6.486603
2009-03-31 08:30:36 51°9.275 2°36.489 -999 0.088414 0.463409 6.486603
2009-03-31 08:30:41 51°9.271 2°36.502 -999 0.088414 0.463417 6.416955
2009-03-31 08:30:46 51°9.268 2°36.515 -999 0.088414 0.463425 6.312483
2009-03-31 08:30:51 51°9.264 2°36.528 -999 0.088414 0.463432 6.138363
2009-03-31 08:30:56 51°9.262 2°36.54 -999 0.088414 0.463448 5.999067
2009-03-31 08:31:01 51°9.259 2°36.552 -999 0.088414 0.463448 5.85977
2009-03-31 08:31:06 51°9.257 2°36.565 -999 0.088414 0.463448 5.85977
2009-03-31 08:31:11 51°9.255 2°36.577 -999 0.088414 0.463456 5.790122
2009-03-31 08:31:16 51°9.253 2°36.589 -999 0.088414 0.463463 5.68565
2009-03-31 08:31:21 51°9.251 2°36.601 -999 0.088414 0.463471 5.650826
2009-03-31 08:31:26 51°9.25 2°36.614 -999 0.088414 0.463479 5.476706
2009-03-31 08:31:31 51°9.248 2°36.626 -999 0.088414 0.463486 5.33741
2009-03-31 08:31:36 51°9.247 2°36.638 -999 0.088414 0.463486 5.33741
2009-03-31 08:31:41 51°9.245 2°36.65 -999 0.088414 0.463494 5.302586
2009-03-31 08:31:46 51°9.244 2°36.661 -999 0.088311 0.462943 5.163289
2009-03-31 08:31:51 51°9.243 2°36.672 -999 0.088414 0.46351 5.128465
2009-03-31 08:31:56 51°9.242 2°36.683 -999 0.088311 0.462958 5.058817
2009-03-31 08:32:01 51°9.241 2°36.694 -999 0.088311 0.462966 4.989169
2009-03-31 08:32:06 51°9.24 2°36.704 -999 0.088311 0.462966 4.989169
2009-03-31 08:32:11 51°9.239 2°36.715 -999 0.088414 0.463533 4.919521
2009-03-31 08:32:16 51°9.239 2°36.725 -999 0.088414 0.46354 4.815049
2009-03-31 08:32:21 51°9.238 2°36.735 -999 0.088414 0.463548 4.710577
2009-03-31 08:32:26 51°9.237 2°36.744 -999 0.088414 0.463556 4.745401